Time,TemperatureF,DewpointF,PressureIn,WindDirection,WindDirectionDegrees,WindSpeedMPH,WindSpeedGustMPH,Humidity,HourlyPrecipIn,Conditions,Clouds,dailyrainin,SoftwareType,DateUTC
2013-03-05 00:00:00,31.9,20.4,29.69,NNW,347,1.0,3.0,62,0.00,,---,0.00,VWS V14.00,2013-03-05 05:00:00,
2013-03-05 00:05:00,31.8,20.3,29.69,NNW,340,5.0,14.0,62,0.00,,---,0.00,VWS V14.00,2013-03-05 05:05:00,
2013-03-05 00:10:00,31.6,20.1,29.69,North,357,1.0,14.0,62,0.00,,---,0.00,VWS V14.00,2013-03-05 05:10:00,
2013-03-05 00:15:00,31.6,20.1,29.69,NW,324,4.0,9.0,62,0.00,,---,0.00,VWS V14.00,2013-03-05 05:15:00,
2013-03-05 00:20:00,31.6,20.1,29.69,NNW,329,2.0,9.0,62,0.00,,---,0.00,VWS V14.00,2013-03-05 05:20:00,
2013-03-05 00:25:00,31.6,20.1,29.69,North,1,3.0,12.0,62,0.00,,---,0.00,VWS V14.00,2013-03-05 05:25:00,
2013-03-05 00:30:00,31.6,20.1,29.70,NNW,329,1.0,6.0,62,0.00,,---,0.00,VWS V14.00,2013-03-05 05:30:00,
2013-03-05 00:31:00,31.6,20.1,29.70,NNW,330,1.0,6.0,62,0.00,,---,0.00,VWS V14.00,2013-03-05 05:31:00,
2013-03-05 00:35:00,31.5,20.0,29.70,NNE,20,1.0,9.0,62,0.00,,---,0.00,VWS V14.00,2013-03-05 05:35:00,
2013-03-05 00:36:00,31.5,20.0,29.70,NNW,329,6.0,9.0,62,0.00,,---,0.00,VWS V14.00,2013-03-05 05:36:00,
2013-03-05 00:40:00,31.5,20.0,29.70,NNW,335,9.0,11.0,62,0.00,,---,0.00,VWS V14.00,2013-03-05 05:40:00,
2013-03-05 00:41:00,31.5,20.0,29.70,NW,324,3.0,11.0,62,0.00,,---,0.00,VWS V14.00,2013-03-05 05:41:00,
2013-03-05 00:45:00,31.5,20.0,29.70,NNW,348,0.0,2.0,62,0.00,,---,0.00,VWS V14.00,2013-03-05 05:45:00,
2013-03-05 00:46:00,31.5,20.0,29.70,North,349,1.0,2.0,62,0.00,,---,0.00,VWS V14.00,2013-03-05 05:46:00,
2013-03-05 00:50:00,31.5,20.0,29.70,North,356,8.0,11.0,62,0.00,,---,0.00,VWS V14.00,2013-03-05 05:50:00,
2013-03-05 00:51:00,31.3,19.8,29.70,NNW,338,6.0,11.0,62,0.00,,---,0.00,VWS V14.00,2013-03-05 05:51:00,
2013-03-05 00:56:00,31.3,19.8,29.70,NNW,339,3.0,18.0,62,0.00,,---,0.00,VWS V14.00,2013-03-05 05:56:00,
2013-03-05 00:57:00,31.3,19.8,29.70,North,8,4.0,18.0,62,0.00,,---,0.00,VWS V14.00,2013-03-05 05:57:00,
2013-03-05 01:00:00,31.2,19.7,29.72,NNW,340,6.0,11.0,62,0.00,,---,0.00,VWS V14.00,2013-03-05 06:00:00,
2013-03-05 01:01:00,31.3,19.8,29.71,NNW,330,5.0,10.0,62,0.00,,---,0.00,VWS V14.00,2013-03-05 06:01:00,
2013-03-05 01:02:00,31.3,19.8,29.71,North,350,0.0,10.0,62,0.00,,---,0.00,VWS V14.00,2013-03-05 06:02:00,
2013-03-05 01:06:00,31.3,19.8,29.71,NNW,330,5.0,10.0,62,0.00,,---,0.00,VWS V14.00,2013-03-05 06:06:00,
2013-03-05 01:07:00,31.3,19.8,29.71,NNW,342,3.0,12.0,62,0.00,,---,0.00,VWS V14.00,2013-03-05 06:07:00,
2013-03-05 01:11:00,31.2,19.7,29.71,NNW,331,12.0,14.0,62,0.00,,---,0.00,VWS V14.00,2013-03-05 06:11:00,
2013-03-05 01:12:00,31.2,19.7,29.71,NNW,342,3.0,14.0,62,0.00,,---,0.00,VWS V14.00,2013-03-05 06:12:00,
2013-03-05 01:15:00,31.2,19.7,29.73,NNW,346,5.0,11.0,62,0.00,,---,0.00,VWS V14.00,2013-03-05 06:15:00,
2013-03-05 01:16:00,31.2,19.7,29.72,NNW,333,6.0,15.0,62,0.00,,---,0.00,VWS V14.00,2013-03-05 06:16:00,
2013-03-05 01:17:00,31.2,19.7,29.72,NNW,347,3.0,15.0,62,0.00,,---,0.00,VWS V14.00,2013-03-05 06:17:00,
2013-03-05 01:21:00,31.2,19.7,29.72,NW,322,3.0,15.0,62,0.00,,---,0.00,VWS V14.00,2013-03-05 06:21:00,
2013-03-05 01:22:00,31.2,19.7,29.72,NNW,338,3.0,15.0,62,0.00,,---,0.00,VWS V14.00,2013-03-05 06:22:00,
2013-03-05 01:26:00,31.2,19.7,29.72,NNW,335,2.0,15.0,62,0.00,,---,0.00,VWS V14.00,2013-03-05 06:26:00,
2013-03-05 01:27:00,31.2,19.7,29.72,NNW,342,2.0,15.0,62,0.00,,---,0.00,VWS V14.00,2013-03-05 06:27:00,
2013-03-05 01:30:00,31.2,19.7,29.73,NNW,342,2.0,11.0,62,0.00,,---,0.00,VWS V14.00,2013-03-05 06:30:00,
2013-03-05 01:31:00,31.2,19.7,29.72,North,6,2.0,7.0,62,0.00,,---,0.00,VWS V14.00,2013-03-05 06:31:00,
2013-03-05 01:32:00,31.2,19.7,29.72,North,0,1.0,7.0,62,0.00,,---,0.00,VWS V14.00,2013-03-05 06:32:00,
2013-03-05 01:36:00,31.2,19.7,29.72,North,355,4.0,7.0,62,0.00,,---,0.00,VWS V14.00,2013-03-05 06:36:00,
2013-03-05 01:37:00,31.2,19.7,29.72,North,356,4.0,7.0,62,0.00,,---,0.00,VWS V14.00,2013-03-05 06:37:00,
2013-03-05 01:38:00,31.2,19.7,29.72,NNW,340,3.0,12.0,62,0.00,,---,0.00,VWS V14.00,2013-03-05 06:38:00,
2013-03-05 01:41:00,31.2,19.7,29.72,ENE,59,0.0,12.0,62,0.00,,---,0.00,VWS V14.00,2013-03-05 06:41:00,
2013-03-05 01:42:00,31.2,19.7,29.72,NNE,24,2.0,12.0,62,0.00,,---,0.00,VWS V14.00,2013-03-05 06:42:00,
2013-03-05 01:43:00,31.2,19.7,29.72,North,6,0.0,12.0,62,0.00,,---,0.00,VWS V14.00,2013-03-05 06:43:00,
2013-03-05 01:45:00,31.2,19.7,29.73,NNW,344,4.0,9.0,62,0.00,,---,0.00,VWS V14.00,2013-03-05 06:45:00,
2013-03-05 01:46:00,31.2,19.7,29.72,NNW,332,6.0,7.0,62,0.00,,---,0.00,VWS V14.00,2013-03-05 06:46:00,
2013-03-05 01:47:00,31.2,19.7,29.72,NNW,347,4.0,9.0,62,0.00,,---,0.00,VWS V14.00,2013-03-05 06:47:00,
2013-03-05 01:48:00,31.2,19.7,29.72,NW,322,7.0,9.0,62,0.00,,---,0.00,VWS V14.00,2013-03-05 06:48:00,
2013-03-05 01:52:00,31.2,19.7,29.72,North,1,4.0,11.0,62,0.00,,---,0.00,VWS V14.00,2013-03-05 06:52:00,
2013-03-05 01:53:00,31.2,19.7,29.72,NW,324,5.0,11.0,62,0.00,,---,0.00,VWS V14.00,2013-03-05 06:53:00,
2013-03-05 01:57:00,31.2,19.7,29.72,NNW,347,3.0,11.0,62,0.00,,---,0.00,VWS V14.00,2013-03-05 06:57:00,
2013-03-05 01:58:00,31.2,19.7,29.72,NNW,345,3.0,11.0,62,0.00,,---,0.00,VWS V14.00,2013-03-05 06:58:00,
2013-03-05 02:00:00,31.2,19.7,29.73,North,352,4.0,13.0,62,0.00,,---,0.00,VWS V14.00,2013-03-05 07:00:00,
2013-03-05 02:02:00,31.2,19.7,29.72,NW,313,5.0,6.0,62,0.00,,---,0.00,VWS V14.00,2013-03-05 07:02:00,
2013-03-05 02:03:00,31.2,19.7,29.72,North,356,2.0,10.0,62,0.00,,---,0.00,VWS V14.00,2013-03-05 07:03:00,
2013-03-05 02:07:00,31.2,19.7,29.72,NNW,330,0.0,10.0,62,0.00,,---,0.00,VWS V14.00,2013-03-05 07:07:00,
2013-03-05 02:08:00,31.2,19.7,29.72,NNW,328,0.0,10.0,62,0.00,,---,0.00,VWS V14.00,2013-03-05 07:08:00,
2013-03-05 02:09:00,31.2,19.7,29.72,North,356,9.0,10.0,62,0.00,,---,0.00,VWS V14.00,2013-03-05 07:09:00,
2013-03-05 02:12:00,31.2,19.7,29.72,North,349,2.0,11.0,62,0.00,,---,0.00,VWS V14.00,2013-03-05 07:12:00,
2013-03-05 02:13:00,31.2,19.7,29.72,NNW,328,5.0,11.0,62,0.00,,---,0.00,VWS V14.00,2013-03-05 07:13:00,
2013-03-05 02:14:00,31.2,19.7,29.73,NNW,328,2.0,11.0,62,0.00,,---,0.00,VWS V14.00,2013-03-05 07:14:00,
2013-03-05 02:15:00,31.0,19.5,29.74,NNW,337,1.0,11.0,62,0.00,,---,0.00,VWS V14.00,2013-03-05 07:15:00,
2013-03-05 02:17:00,31.2,19.7,29.73,NNW,344,4.0,9.0,62,0.00,,---,0.00,VWS V14.00,2013-03-05 07:17:00,
2013-03-05 02:18:00,31.2,19.7,29.73,NNW,344,2.0,9.0,62,0.00,,---,0.00,VWS V14.00,2013-03-05 07:18:00,
2013-03-05 02:19:00,31.2,19.7,29.73,North,359,1.0,9.0,62,0.00,,---,0.00,VWS V14.00,2013-03-05 07:19:00,
2013-03-05 02:22:00,31.2,19.7,29.73,NNW,342,5.0,11.0,62,0.00,,---,0.00,VWS V14.00,2013-03-05 07:22:00,
2013-03-05 02:23:00,31.2,19.7,29.73,NNW,344,3.0,11.0,62,0.00,,---,0.00,VWS V14.00,2013-03-05 07:23:00,
2013-03-05 02:24:00,31.2,19.7,29.73,North,0,1.0,11.0,62,0.00,,---,0.00,VWS V14.00,2013-03-05 07:24:00,
2013-03-05 02:27:00,31.2,19.7,29.73,NNW,333,4.0,11.0,62,0.00,,---,0.00,VWS V14.00,2013-03-05 07:27:00,
2013-03-05 02:28:00,31.2,19.7,29.73,NNW,334,2.0,11.0,62,0.00,,---,0.00,VWS V14.00,2013-03-05 07:28:00,
2013-03-05 02:29:00,31.2,19.7,29.73,NNW,342,3.0,11.0,62,0.00,,---,0.00,VWS V14.00,2013-03-05 07:29:00,
2013-03-05 02:30:00,30.9,19.4,29.75,North,359,3.0,15.0,62,0.00,,---,0.00,VWS V14.00,2013-03-05 07:30:00,
2013-03-05 02:33:00,31.2,19.7,29.73,North,353,0.0,7.0,62,0.00,,---,0.00,VWS V14.00,2013-03-05 07:33:00,
2013-03-05 02:34:00,31.2,19.7,29.73,North,355,4.0,7.0,62,0.00,,---,0.00,VWS V14.00,2013-03-05 07:34:00,
2013-03-05 02:38:00,31.2,19.7,29.73,North,359,4.0,9.0,62,0.00,,---,0.00,VWS V14.00,2013-03-05 07:38:00,
2013-03-05 02:39:00,31.2,19.7,29.73,North,356,3.0,9.0,62,0.00,,---,0.00,VWS V14.00,2013-03-05 07:39:00,
2013-03-05 02:43:00,31.2,19.7,29.73,North,349,3.0,9.0,62,0.00,,---,0.00,VWS V14.00,2013-03-05 07:43:00,
2013-03-05 02:44:00,31.2,19.7,29.73,NNW,347,4.0,9.0,62,0.00,,---,0.00,VWS V14.00,2013-03-05 07:44:00,
2013-03-05 02:45:00,30.6,19.5,29.76,North,0,2.0,12.0,63,0.00,,---,0.00,VWS V14.00,2013-03-05 07:45:00,
2013-03-05 02:48:00,31.2,19.7,29.73,NNW,342,3.0,12.0,62,0.00,,---,0.00,VWS V14.00,2013-03-05 07:48:00,
2013-03-05 02:49:00,31.2,19.7,29.73,NNW,331,6.0,12.0,62,0.00,,---,0.00,VWS V14.00,2013-03-05 07:49:00,
2013-03-05 02:53:00,31.2,19.7,29.73,NNW,340,2.0,12.0,62,0.00,,---,0.00,VWS V14.00,2013-03-05 07:53:00,
2013-03-05 02:54:00,31.2,19.7,29.73,NNW,333,5.0,12.0,62,0.00,,---,0.00,VWS V14.00,2013-03-05 07:54:00,
2013-03-05 02:58:00,31.2,19.7,29.73,North,355,9.0,13.0,62,0.00,,---,0.00,VWS V14.00,2013-03-05 07:58:00,
2013-03-05 02:59:00,31.2,19.7,29.73,NW,323,4.0,4.0,62,0.00,,---,0.00,VWS V14.00,2013-03-05 07:59:00,
2013-03-05 03:00:00,30.4,19.7,29.76,North,353,0.0,11.0,64,0.00,,---,0.00,VWS V14.00,2013-03-05 08:00:00,
2013-03-05 03:03:00,31.2,19.7,29.73,NNW,334,0.0,9.0,62,0.00,,---,0.00,VWS V14.00,2013-03-05 08:03:00,
2013-03-05 03:04:00,31.2,19.7,29.73,North,355,5.0,11.0,62,0.00,,---,0.00,VWS V14.00,2013-03-05 08:04:00,
2013-03-05 03:08:00,31.2,19.7,29.73,NNW,339,0.0,11.0,62,0.00,,---,0.00,VWS V14.00,2013-03-05 08:08:00,
2013-03-05 03:09:00,31.2,19.7,29.73,NNW,339,0.0,11.0,62,0.00,,---,0.00,VWS V14.00,2013-03-05 08:09:00,
2013-03-05 03:14:00,31.0,19.5,29.74,NNW,330,4.0,11.0,62,0.00,,---,0.00,VWS V14.00,2013-03-05 08:14:00,
2013-03-05 03:15:00,30.4,19.7,29.77,North,356,2.0,10.0,64,0.00,,---,0.00,VWS V14.00,2013-03-05 08:15:00,
2013-03-05 03:19:00,31.0,19.5,29.74,NNW,341,10.0,13.0,62,0.00,,---,0.00,VWS V14.00,2013-03-05 08:19:00,
2013-03-05 03:24:00,30.9,19.4,29.74,NNW,327,7.0,15.0,62,0.00,,---,0.00,VWS V14.00,2013-03-05 08:24:00,
2013-03-05 03:25:00,30.9,19.4,29.74,North,358,4.0,15.0,62,0.00,,---,0.00,VWS V14.00,2013-03-05 08:25:00,
2013-03-05 03:29:00,30.9,19.4,29.75,North,359,3.0,15.0,62,0.00,,---,0.00,VWS V14.00,2013-03-05 08:29:00,
2013-03-05 03:30:00,30.9,19.4,29.75,North,359,1.0,3.0,62,0.00,,---,0.00,VWS V14.00,2013-03-05 08:30:00,
2013-03-05 03:34:00,30.7,19.6,29.75,NNW,330,5.0,12.0,63,0.00,,---,0.00,VWS V14.00,2013-03-05 08:34:00,
2013-03-05 03:35:00,30.7,19.6,29.75,North,358,3.0,12.0,63,0.00,,---,0.00,VWS V14.00,2013-03-05 08:35:00,
2013-03-05 03:39:00,30.6,19.5,29.75,NNW,327,0.0,12.0,63,0.00,,---,0.00,VWS V14.00,2013-03-05 08:39:00,
2013-03-05 03:40:00,30.6,19.5,29.75,NNW,327,2.0,12.0,63,0.00,,---,0.00,VWS V14.00,2013-03-05 08:40:00,
2013-03-05 03:45:00,30.6,19.5,29.76,North,351,0.0,3.0,63,0.00,,---,0.00,VWS V14.00,2013-03-05 08:45:00,
2013-03-05 03:50:00,30.6,19.5,29.76,NNW,330,6.0,11.0,63,0.00,,---,0.00,VWS V14.00,2013-03-05 08:50:00,
2013-03-05 03:55:00,30.6,19.9,29.76,NNE,20,5.0,11.0,64,0.00,,---,0.00,VWS V14.00,2013-03-05 08:55:00,
2013-03-05 04:00:00,30.4,19.7,29.76,North,357,5.0,5.0,64,0.00,,---,0.00,VWS V14.00,2013-03-05 09:00:00,
2013-03-05 04:01:00,30.4,19.7,29.76,NW,309,4.0,5.0,64,0.00,,---,0.00,VWS V14.00,2013-03-05 09:01:00,
2013-03-05 04:05:00,30.4,19.7,29.76,NNW,347,2.0,9.0,64,0.00,,---,0.00,VWS V14.00,2013-03-05 09:05:00,
2013-03-05 04:06:00,30.4,19.7,29.76,NNW,342,1.0,9.0,64,0.00,,---,0.00,VWS V14.00,2013-03-05 09:06:00,
2013-03-05 04:10:00,30.4,19.7,29.76,NNW,338,7.0,10.0,64,0.00,,---,0.00,VWS V14.00,2013-03-05 09:10:00,
2013-03-05 04:11:00,30.4,19.7,29.76,NNW,346,5.0,10.0,64,0.00,,---,0.00,VWS V14.00,2013-03-05 09:11:00,
2013-03-05 04:15:00,30.6,19.9,29.77,North,359,0.0,3.0,64,0.00,,---,0.00,VWS V14.00,2013-03-05 09:15:00,
2013-03-05 04:16:00,30.6,19.9,29.77,North,359,5.0,7.0,64,0.00,,---,0.00,VWS V14.00,2013-03-05 09:16:00,
2013-03-05 04:20:00,30.6,19.9,29.77,NNW,338,2.0,7.0,64,0.00,,---,0.00,VWS V14.00,2013-03-05 09:20:00,
2013-03-05 04:21:00,30.6,19.9,29.77,NNW,338,5.0,7.0,64,0.00,,---,0.00,VWS V14.00,2013-03-05 09:21:00,
2013-03-05 04:25:00,30.6,19.9,29.77,NNW,335,7.0,9.0,64,0.00,,---,0.00,VWS V14.00,2013-03-05 09:25:00,
2013-03-05 04:26:00,30.6,19.9,29.77,North,3,2.0,9.0,64,0.00,,---,0.00,VWS V14.00,2013-03-05 09:26:00,
2013-03-05 04:30:00,30.7,20.0,29.78,NE,53,0.0,12.0,64,0.00,,---,0.00,VWS V14.00,2013-03-05 09:30:00,
2013-03-05 04:31:00,30.7,20.0,29.78,North,351,3.0,12.0,64,0.00,,---,0.00,VWS V14.00,2013-03-05 09:31:00,
2013-03-05 04:35:00,30.7,20.0,29.78,ENE,68,2.0,12.0,64,0.00,,---,0.00,VWS V14.00,2013-03-05 09:35:00,
2013-03-05 04:36:00,30.7,20.0,29.78,NE,46,0.0,12.0,64,0.00,,---,0.00,VWS V14.00,2013-03-05 09:36:00,
2013-03-05 04:37:00,30.7,19.6,29.78,North,1,2.0,12.0,63,0.00,,---,0.00,VWS V14.00,2013-03-05 09:37:00,
2013-03-05 04:40:00,30.9,19.8,29.78,NW,326,3.0,12.0,63,0.00,,---,0.00,VWS V14.00,2013-03-05 09:40:00,
2013-03-05 04:41:00,30.9,19.8,29.78,NW,326,4.0,12.0,63,0.00,,---,0.00,VWS V14.00,2013-03-05 09:41:00,
2013-03-05 04:42:00,30.9,19.8,29.78,NW,323,8.0,12.0,63,0.00,,---,0.00,VWS V14.00,2013-03-05 09:42:00,
2013-03-05 04:45:00,30.9,19.8,29.78,North,0,3.0,8.0,63,0.00,,---,0.00,VWS V14.00,2013-03-05 09:45:00,
2013-03-05 04:46:00,30.9,19.8,29.78,NW,314,2.0,8.0,63,0.00,,---,0.00,VWS V14.00,2013-03-05 09:46:00,
2013-03-05 04:47:00,30.9,19.8,29.78,NNW,340,3.0,8.0,63,0.00,,---,0.00,VWS V14.00,2013-03-05 09:47:00,
2013-03-05 04:50:00,30.9,19.8,29.78,NW,304,4.0,10.0,63,0.00,,---,0.00,VWS V14.00,2013-03-05 09:50:00,
2013-03-05 04:51:00,30.9,19.8,29.78,NNW,333,9.0,11.0,63,0.00,,---,0.00,VWS V14.00,2013-03-05 09:51:00,
2013-03-05 04:52:00,30.9,19.8,29.78,North,350,4.0,12.0,63,0.00,,---,0.00,VWS V14.00,2013-03-05 09:52:00,
2013-03-05 04:56:00,30.9,19.8,29.78,NNW,335,3.0,12.0,63,0.00,,---,0.00,VWS V14.00,2013-03-05 09:56:00,
2013-03-05 04:57:00,30.9,19.8,29.78,North,359,0.0,12.0,63,0.00,,---,0.00,VWS V14.00,2013-03-05 09:57:00,
2013-03-05 05:00:00,31.2,20.1,29.81,North,355,4.0,13.0,63,0.00,,---,0.00,VWS V14.00,2013-03-05 10:00:00,
2013-03-05 05:01:00,31.0,19.9,29.79,NNW,330,4.0,4.0,63,0.00,,---,0.00,VWS V14.00,2013-03-05 10:01:00,
2013-03-05 05:02:00,31.0,19.9,29.79,NNW,346,2.0,5.0,63,0.00,,---,0.00,VWS V14.00,2013-03-05 10:02:00,
2013-03-05 05:06:00,31.0,19.9,29.79,North,0,3.0,7.0,63,0.00,,---,0.00,VWS V14.00,2013-03-05 10:06:00,
2013-03-05 05:07:00,31.0,19.9,29.79,North,359,1.0,9.0,63,0.00,,---,0.00,VWS V14.00,2013-03-05 10:07:00,
2013-03-05 05:08:00,31.0,19.9,29.79,North,359,2.0,9.0,63,0.00,,---,0.00,VWS V14.00,2013-03-05 10:08:00,
2013-03-05 05:11:00,31.0,19.9,29.79,North,1,3.0,9.0,63,0.00,,---,0.00,VWS V14.00,2013-03-05 10:11:00,
2013-03-05 05:12:00,31.0,19.9,29.79,North,1,2.0,9.0,63,0.00,,---,0.00,VWS V14.00,2013-03-05 10:12:00,
2013-03-05 05:13:00,31.0,19.9,29.79,North,356,3.0,9.0,63,0.00,,---,0.00,VWS V14.00,2013-03-05 10:13:00,
2013-03-05 05:15:00,31.0,19.9,29.81,North,357,0.0,10.0,63,0.00,,---,0.00,VWS V14.00,2013-03-05 10:15:00,
2013-03-05 05:16:00,31.0,19.9,29.79,North,354,3.0,4.0,63,0.00,,---,0.00,VWS V14.00,2013-03-05 10:16:00,
2013-03-05 05:17:00,31.0,19.9,29.79,NNW,343,0.0,5.0,63,0.00,,---,0.00,VWS V14.00,2013-03-05 10:17:00,
2013-03-05 05:18:00,31.0,19.9,29.79,NNW,335,4.0,5.0,63,0.00,,---,0.00,VWS V14.00,2013-03-05 10:18:00,
2013-03-05 05:21:00,31.0,19.9,29.79,North,8,3.0,9.0,63,0.00,,---,0.00,VWS V14.00,2013-03-05 10:21:00,
2013-03-05 05:22:00,31.0,20.3,29.79,NNE,18,0.0,9.0,64,0.00,,---,0.00,VWS V14.00,2013-03-05 10:22:00,
2013-03-05 05:23:00,31.0,20.3,29.79,NNW,330,5.0,9.0,64,0.00,,---,0.00,VWS V14.00,2013-03-05 10:23:00,
2013-03-05 05:26:00,31.0,19.9,29.79,North,351,4.0,10.0,63,0.00,,---,0.00,VWS V14.00,2013-03-05 10:26:00,
2013-03-05 05:27:00,31.0,19.9,29.79,NNW,345,9.0,10.0,63,0.00,,---,0.00,VWS V14.00,2013-03-05 10:27:00,
2013-03-05 05:28:00,31.0,19.9,29.79,NW,312,7.0,10.0,63,0.00,,---,0.00,VWS V14.00,2013-03-05 10:28:00,
2013-03-05 05:30:00,31.0,19.9,29.82,NNW,347,4.0,11.0,63,0.00,,---,0.00,VWS V14.00,2013-03-05 10:30:00,
2013-03-05 05:31:00,31.0,19.9,29.80,North,358,3.0,8.0,63,0.00,,---,0.00,VWS V14.00,2013-03-05 10:31:00,
2013-03-05 05:32:00,31.0,19.9,29.80,North,354,1.0,8.0,63,0.00,,---,0.00,VWS V14.00,2013-03-05 10:32:00,
2013-03-05 05:33:00,31.0,19.9,29.80,North,354,1.0,8.0,63,0.00,,---,0.00,VWS V14.00,2013-03-05 10:33:00,
2013-03-05 05:36:00,31.0,20.3,29.80,NNW,338,5.0,8.0,64,0.00,,---,0.00,VWS V14.00,2013-03-05 10:36:00,
2013-03-05 05:37:00,31.0,19.9,29.80,NNW,343,3.0,9.0,63,0.00,,---,0.00,VWS V14.00,2013-03-05 10:37:00,
2013-03-05 05:38:00,31.0,19.9,29.80,North,356,2.0,9.0,63,0.00,,---,0.00,VWS V14.00,2013-03-05 10:38:00,
2013-03-05 05:41:00,31.0,19.9,29.80,North,355,4.0,9.0,63,0.00,,---,0.00,VWS V14.00,2013-03-05 10:41:00,
2013-03-05 05:42:00,31.2,20.1,29.80,NNW,338,3.0,9.0,63,0.00,,---,0.00,VWS V14.00,2013-03-05 10:42:00,
2013-03-05 05:43:00,31.0,19.9,29.81,North,0,5.0,9.0,63,0.00,,---,0.00,VWS V14.00,2013-03-05 10:43:00,
2013-03-05 05:45:00,31.2,20.5,29.83,NNW,331,0.0,11.0,64,0.00,,---,0.00,VWS V14.00,2013-03-05 10:45:00,
2013-03-05 05:46:00,31.2,20.1,29.81,North,359,3.0,10.0,63,0.00,,---,0.00,VWS V14.00,2013-03-05 10:46:00,
2013-03-05 05:47:00,31.2,20.1,29.81,NE,39,0.0,10.0,63,0.00,,---,0.00,VWS V14.00,2013-03-05 10:47:00,
2013-03-05 05:48:00,31.2,20.1,29.81,NE,39,0.0,10.0,63,0.00,,---,0.00,VWS V14.00,2013-03-05 10:48:00,
2013-03-05 05:51:00,31.2,20.1,29.81,NW,325,8.0,10.0,63,0.00,,---,0.00,VWS V14.00,2013-03-05 10:51:00,
2013-03-05 05:52:00,31.2,20.1,29.81,North,356,2.0,10.0,63,0.00,,---,0.00,VWS V14.00,2013-03-05 10:52:00,
2013-03-05 05:53:00,31.2,20.1,29.81,NNW,332,7.0,13.0,63,0.00,,---,0.00,VWS V14.00,2013-03-05 10:53:00,
2013-03-05 05:56:00,31.2,20.1,29.81,North,356,1.0,13.0,63,0.00,,---,0.00,VWS V14.00,2013-03-05 10:56:00,
2013-03-05 05:58:00,31.2,20.1,29.81,NNW,338,4.0,13.0,63,0.00,,---,0.00,VWS V14.00,2013-03-05 10:58:00,
2013-03-05 06:00:00,31.3,20.2,29.83,NNW,339,1.0,10.0,63,0.00,,---,0.00,VWS V14.00,2013-03-05 11:00:00,
2013-03-05 06:01:00,31.0,19.9,29.81,North,359,3.0,4.0,63,0.00,,---,0.00,VWS V14.00,2013-03-05 11:01:00,
2013-03-05 06:03:00,31.0,19.9,29.81,NNW,338,3.0,5.0,63,0.00,,---,0.00,VWS V14.00,2013-03-05 11:03:00,
2013-03-05 06:06:00,31.0,19.9,29.81,North,359,3.0,10.0,63,0.00,,---,0.00,VWS V14.00,2013-03-05 11:06:00,
2013-03-05 06:08:00,31.0,19.9,29.81,NNW,342,3.0,10.0,63,0.00,,---,0.00,VWS V14.00,2013-03-05 11:08:00,
2013-03-05 06:11:00,31.0,19.9,29.81,North,354,3.0,10.0,63,0.00,,---,0.00,VWS V14.00,2013-03-05 11:11:00,
2013-03-05 06:13:00,31.0,19.9,29.81,NNW,328,3.0,10.0,63,0.00,,---,0.00,VWS V14.00,2013-03-05 11:13:00,
2013-03-05 06:14:00,31.0,19.9,29.81,North,357,3.0,10.0,63,0.00,,---,0.00,VWS V14.00,2013-03-05 11:14:00,
2013-03-05 06:15:00,31.5,20.4,29.84,North,356,2.0,7.0,63,0.00,,---,0.00,VWS V14.00,2013-03-05 11:15:00,
2013-03-05 06:16:00,31.0,20.3,29.81,NW,326,10.0,10.0,64,0.00,,---,0.00,VWS V14.00,2013-03-05 11:16:00,
2013-03-05 06:17:00,31.0,20.3,29.81,North,357,3.0,11.0,64,0.00,,---,0.00,VWS V14.00,2013-03-05 11:17:00,
2013-03-05 06:18:00,31.0,19.9,29.81,NNW,338,3.0,11.0,63,0.00,,---,0.00,VWS V14.00,2013-03-05 11:18:00,
2013-03-05 06:19:00,31.0,19.9,29.81,NNW,338,2.0,11.0,63,0.00,,---,0.00,VWS V14.00,2013-03-05 11:19:00,
2013-03-05 06:21:00,31.0,19.9,29.81,NW,326,6.0,11.0,63,0.00,,---,0.00,VWS V14.00,2013-03-05 11:21:00,
2013-03-05 06:22:00,31.0,19.9,29.81,North,352,3.0,11.0,63,0.00,,---,0.00,VWS V14.00,2013-03-05 11:22:00,
2013-03-05 06:24:00,31.0,20.3,29.81,NNW,342,6.0,11.0,64,0.00,,---,0.00,VWS V14.00,2013-03-05 11:24:00,
2013-03-05 06:26:00,31.0,20.3,29.81,NNW,328,3.0,11.0,64,0.00,,---,0.00,VWS V14.00,2013-03-05 11:26:00,
2013-03-05 06:27:00,31.0,20.3,29.81,North,352,3.0,11.0,64,0.00,,---,0.00,VWS V14.00,2013-03-05 11:27:00,
2013-03-05 06:29:00,31.0,19.9,29.82,NNW,340,4.0,11.0,63,0.00,,---,0.00,VWS V14.00,2013-03-05 11:29:00,
2013-03-05 06:30:00,32.1,20.6,29.85,NNW,334,4.0,10.0,62,0.00,,---,0.00,VWS V14.00,2013-03-05 11:30:00,
2013-03-05 06:32:00,31.2,20.1,29.82,NNW,338,2.0,11.0,63,0.00,,---,0.00,VWS V14.00,2013-03-05 11:32:00,
2013-03-05 06:34:00,31.2,20.1,29.82,North,355,1.0,11.0,63,0.00,,---,0.00,VWS V14.00,2013-03-05 11:34:00,
2013-03-05 06:37:00,31.2,20.5,29.82,NNW,331,1.0,11.0,64,0.00,,---,0.00,VWS V14.00,2013-03-05 11:37:00,
2013-03-05 06:39:00,31.2,20.5,29.82,North,1,1.0,11.0,64,0.00,,---,0.00,VWS V14.00,2013-03-05 11:39:00,
2013-03-05 06:42:00,31.2,20.5,29.82,NNW,331,0.0,11.0,64,0.00,,---,0.00,VWS V14.00,2013-03-05 11:42:00,
2013-03-05 06:44:00,31.2,20.5,29.83,NNW,331,0.0,11.0,64,0.00,,---,0.00,VWS V14.00,2013-03-05 11:44:00,
2013-03-05 06:45:00,32.4,20.5,29.85,North,359,0.0,11.0,61,0.00,,---,0.00,VWS V14.00,2013-03-05 11:45:00,
2013-03-05 06:47:00,31.2,20.5,29.83,NNW,333,0.0,10.0,64,0.00,,---,0.00,VWS V14.00,2013-03-05 11:47:00,
2013-03-05 06:49:00,31.2,20.5,29.83,NNW,336,5.0,10.0,64,0.00,,---,0.00,VWS V14.00,2013-03-05 11:49:00,
2013-03-05 06:52:00,31.2,20.1,29.83,NNW,345,1.0,10.0,63,0.00,,---,0.00,VWS V14.00,2013-03-05 11:52:00,
2013-03-05 06:54:00,31.2,20.1,29.83,NE,47,0.0,10.0,63,0.00,,---,0.00,VWS V14.00,2013-03-05 11:54:00,
2013-03-05 06:57:00,31.3,20.5,29.83,North,359,3.0,10.0,64,0.00,,---,0.00,VWS V14.00,2013-03-05 11:57:00,
2013-03-05 06:59:00,31.3,20.2,29.83,NNW,340,1.0,10.0,63,0.00,,---,0.00,VWS V14.00,2013-03-05 11:59:00,
2013-03-05 07:00:00,31.3,20.2,29.83,NNW,328,4.0,4.0,63,0.00,,---,0.00,VWS V14.00,2013-03-05 12:00:00,
2013-03-05 07:02:00,31.3,20.2,29.83,NNW,342,3.0,6.0,63,0.00,,---,0.00,VWS V14.00,2013-03-05 12:02:00,
2013-03-05 07:03:00,31.3,20.2,29.83,NNW,340,3.0,6.0,63,0.00,,---,0.00,VWS V14.00,2013-03-05 12:03:00,
2013-03-05 07:04:00,31.3,20.2,29.83,NW,326,2.0,6.0,63,0.00,,---,0.00,VWS V14.00,2013-03-05 12:04:00,
2013-03-05 07:05:00,31.3,20.2,29.83,NW,326,1.0,6.0,63,0.00,,---,0.00,VWS V14.00,2013-03-05 12:05:00,
2013-03-05 07:07:00,31.3,20.2,29.83,NNW,333,2.0,6.0,63,0.00,,---,0.00,VWS V14.00,2013-03-05 12:07:00,
2013-03-05 07:08:00,31.3,20.2,29.83,North,349,3.0,6.0,63,0.00,,---,0.00,VWS V14.00,2013-03-05 12:08:00,
2013-03-05 07:09:00,31.3,20.2,29.83,NNW,340,4.0,6.0,63,0.00,,---,0.00,VWS V14.00,2013-03-05 12:09:00,
2013-03-05 07:10:00,31.5,20.4,29.83,NNW,343,3.0,6.0,63,0.00,,---,0.00,VWS V14.00,2013-03-05 12:10:00,
2013-03-05 07:12:00,31.5,20.4,29.83,NNW,330,2.0,7.0,63,0.00,,---,0.00,VWS V14.00,2013-03-05 12:12:00,
2013-03-05 07:13:00,31.5,20.4,29.83,NNW,334,3.0,7.0,63,0.00,,---,0.00,VWS V14.00,2013-03-05 12:13:00,
2013-03-05 07:14:00,31.5,20.4,29.84,North,356,1.0,2.0,63,0.00,,---,0.00,VWS V14.00,2013-03-05 12:14:00,
2013-03-05 07:15:00,31.5,20.4,29.84,West,274,2.0,10.0,63,0.00,,---,0.00,VWS V14.00,2013-03-05 12:15:00,
2013-03-05 07:18:00,31.6,20.5,29.84,NNW,345,2.0,10.0,63,0.00,,---,0.00,VWS V14.00,2013-03-05 12:18:00,
2013-03-05 07:20:00,31.6,20.5,29.84,NNW,328,5.0,10.0,63,0.00,,---,0.00,VWS V14.00,2013-03-05 12:20:00,
2013-03-05 07:23:00,31.8,20.7,29.84,NNW,334,3.0,10.0,63,0.00,,---,0.00,VWS V14.00,2013-03-05 12:23:00,
2013-03-05 07:25:00,31.8,20.3,29.84,North,1,2.0,10.0,62,0.00,,---,0.00,VWS V14.00,2013-03-05 12:25:00,
2013-03-05 07:28:00,31.9,20.4,29.84,North,349,3.0,10.0,62,0.00,,---,0.00,VWS V14.00,2013-03-05 12:28:00,
2013-03-05 07:30:00,32.1,20.6,29.85,NNW,335,0.0,4.0,62,0.00,,---,0.00,VWS V14.00,2013-03-05 12:30:00,
2013-03-05 07:33:00,32.2,20.7,29.85,North,5,4.0,6.0,62,0.00,,---,0.00,VWS V14.00,2013-03-05 12:33:00,
2013-03-05 07:35:00,32.2,20.7,29.85,NNW,338,4.0,6.0,62,0.00,,---,0.00,VWS V14.00,2013-03-05 12:35:00,
2013-03-05 07:38:00,32.4,20.9,29.85,NNW,343,3.0,11.0,62,0.00,,---,0.00,VWS V14.00,2013-03-05 12:38:00,
2013-03-05 07:40:00,32.4,20.9,29.85,NW,319,5.0,11.0,62,0.00,,---,0.00,VWS V14.00,2013-03-05 12:40:00,
2013-03-05 07:41:00,32.4,20.5,29.85,NNW,328,5.0,11.0,61,0.00,,---,0.00,VWS V14.00,2013-03-05 12:41:00,
2013-03-05 07:43:00,32.4,20.5,29.85,North,1,3.0,11.0,61,0.00,,---,0.00,VWS V14.00,2013-03-05 12:43:00,
2013-03-05 07:44:00,32.4,20.5,29.85,North,359,0.0,11.0,61,0.00,,---,0.00,VWS V14.00,2013-03-05 12:44:00,
2013-03-05 07:45:00,32.5,20.6,29.85,NW,319,1.0,3.0,61,0.00,,---,0.00,VWS V14.00,2013-03-05 12:45:00,
2013-03-05 07:46:00,32.5,20.6,29.85,North,359,4.0,4.0,61,0.00,,---,0.00,VWS V14.00,2013-03-05 12:46:00,
2013-03-05 07:48:00,32.5,20.6,29.85,North,5,3.0,7.0,61,0.00,,---,0.00,VWS V14.00,2013-03-05 12:48:00,
2013-03-05 07:49:00,32.7,20.8,29.85,North,1,1.0,7.0,61,0.00,,---,0.00,VWS V14.00,2013-03-05 12:49:00,
2013-03-05 07:50:00,32.7,20.8,29.85,NW,325,2.0,7.0,61,0.00,,---,0.00,VWS V14.00,2013-03-05 12:50:00,
2013-03-05 07:51:00,32.7,20.8,29.85,North,0,5.0,7.0,61,0.00,,---,0.00,VWS V14.00,2013-03-05 12:51:00,
2013-03-05 07:53:00,32.8,20.9,29.85,NNW,338,1.0,7.0,61,0.00,,---,0.00,VWS V14.00,2013-03-05 12:53:00,
2013-03-05 07:54:00,32.8,20.9,29.85,North,0,3.0,7.0,61,0.00,,---,0.00,VWS V14.00,2013-03-05 12:54:00,
2013-03-05 07:55:00,32.8,20.9,29.85,NNE,22,3.0,7.0,61,0.00,,---,0.00,VWS V14.00,2013-03-05 12:55:00,
2013-03-05 07:56:00,32.8,20.9,29.85,North,350,3.0,7.0,61,0.00,,---,0.00,VWS V14.00,2013-03-05 12:56:00,
2013-03-05 07:58:00,32.8,20.9,29.85,NW,323,4.0,7.0,61,0.00,,---,0.00,VWS V14.00,2013-03-05 12:58:00,
2013-03-05 07:59:00,32.9,20.9,29.86,NNW,330,0.0,0.0,61,0.00,,---,0.00,VWS V14.00,2013-03-05 12:59:00,
2013-03-05 08:00:00,32.9,20.9,29.86,NNW,334,0.0,2.0,61,0.00,,---,0.00,VWS V14.00,2013-03-05 13:00:00,
2013-03-05 08:01:00,32.9,20.9,29.86,North,351,0.0,2.0,61,0.00,,---,0.00,VWS V14.00,2013-03-05 13:01:00,
2013-03-05 08:03:00,33.1,21.1,29.86,NNW,336,4.0,5.0,61,0.00,,---,0.00,VWS V14.00,2013-03-05 13:03:00,
2013-03-05 08:04:00,33.1,20.7,29.86,NNW,345,1.0,5.0,60,0.00,,---,0.00,VWS V14.00,2013-03-05 13:04:00,
2013-03-05 08:06:00,33.1,21.1,29.86,North,350,3.0,5.0,61,0.00,,---,0.00,VWS V14.00,2013-03-05 13:06:00,
2013-03-05 08:08:00,33.1,20.7,29.86,NW,321,2.0,7.0,60,0.00,,---,0.00,VWS V14.00,2013-03-05 13:08:00,
2013-03-05 08:09:00,33.2,20.8,29.86,NNW,338,4.0,7.0,60,0.00,,---,0.00,VWS V14.00,2013-03-05 13:09:00,
2013-03-05 08:11:00,33.2,21.2,29.86,North,0,3.0,7.0,61,0.00,,---,0.00,VWS V14.00,2013-03-05 13:11:00,
2013-03-05 08:13:00,33.4,21.0,29.86,NNW,347,3.0,7.0,60,0.00,,---,0.00,VWS V14.00,2013-03-05 13:13:00,
2013-03-05 08:15:00,33.4,21.0,29.87,NNE,13,3.0,4.0,60,0.00,,---,0.00,VWS V14.00,2013-03-05 13:15:00,
2013-03-05 08:16:00,33.4,21.0,29.87,NNW,344,3.0,4.0,60,0.00,,---,0.00,VWS V14.00,2013-03-05 13:16:00,
2013-03-05 08:18:00,33.4,21.0,29.87,North,357,4.0,6.0,60,0.00,,---,0.00,VWS V14.00,2013-03-05 13:18:00,
2013-03-05 08:20:00,33.5,21.1,29.87,NNE,32,2.0,6.0,60,0.00,,---,0.00,VWS V14.00,2013-03-05 13:20:00,
2013-03-05 08:21:00,33.5,21.1,29.87,North,0,1.0,6.0,60,0.00,,---,0.00,VWS V14.00,2013-03-05 13:21:00,
2013-03-05 08:22:00,33.5,21.1,29.87,North,0,0.0,6.0,60,0.00,,---,0.00,VWS V14.00,2013-03-05 13:22:00,
2013-03-05 08:23:00,33.7,21.3,29.87,North,0,0.0,6.0,60,0.00,,---,0.00,VWS V14.00,2013-03-05 13:23:00,
2013-03-05 08:25:00,33.8,21.4,29.87,North,359,3.0,9.0,60,0.00,,---,0.00,VWS V14.00,2013-03-05 13:25:00,
2013-03-05 08:26:00,33.8,21.0,29.87,North,359,5.0,9.0,59,0.00,,---,0.00,VWS V14.00,2013-03-05 13:26:00,
2013-03-05 08:27:00,33.8,21.0,29.87,North,2,4.0,9.0,59,0.00,,---,0.00,VWS V14.00,2013-03-05 13:27:00,
2013-03-05 08:28:00,34.0,21.2,29.87,NNE,13,1.0,9.0,59,0.00,,---,0.00,VWS V14.00,2013-03-05 13:28:00,
2013-03-05 08:30:00,34.0,21.2,29.87,North,0,0.0,4.0,59,0.00,,---,0.00,VWS V14.00,2013-03-05 13:30:00,
2013-03-05 08:31:00,34.1,21.3,29.87,North,359,3.0,4.0,59,0.00,,---,0.00,VWS V14.00,2013-03-05 13:31:00,
2013-03-05 08:32:00,34.1,21.3,29.87,NNW,334,3.0,5.0,59,0.00,,---,0.00,VWS V14.00,2013-03-05 13:32:00,
2013-03-05 08:33:00,34.1,21.3,29.87,North,349,6.0,7.0,59,0.00,,---,0.00,VWS V14.00,2013-03-05 13:33:00,
2013-03-05 08:36:00,34.3,21.5,29.87,NW,324,4.0,10.0,59,0.00,,---,0.00,VWS V14.00,2013-03-05 13:36:00,
2013-03-05 08:37:00,34.3,21.5,29.87,NW,325,5.0,10.0,59,0.00,,---,0.00,VWS V14.00,2013-03-05 13:37:00,
2013-03-05 08:38:00,34.4,21.6,29.87,NNE,27,0.0,10.0,59,0.00,,---,0.00,VWS V14.00,2013-03-05 13:38:00,
2013-03-05 08:41:00,34.4,21.6,29.87,NNW,328,2.0,10.0,59,0.00,,---,0.00,VWS V14.00,2013-03-05 13:41:00,
2013-03-05 08:42:00,34.6,21.8,29.87,North,354,2.0,10.0,59,0.00,,---,0.00,VWS V14.00,2013-03-05 13:42:00,
2013-03-05 08:43:00,34.6,21.8,29.87,NNW,345,3.0,10.0,59,0.00,,---,0.00,VWS V14.00,2013-03-05 13:43:00,
2013-03-05 08:45:00,36.6,22.8,29.88,NNW,348,3.0,10.0,57,0.00,,---,0.00,VWS V14.00,2013-03-05 13:45:00,
2013-03-05 08:46:00,34.6,21.4,29.87,NNW,347,1.0,9.0,58,0.00,,---,0.00,VWS V14.00,2013-03-05 13:46:00,
2013-03-05 08:47:00,34.7,21.5,29.87,NNW,346,2.0,9.0,58,0.00,,---,0.00,VWS V14.00,2013-03-05 13:47:00,
2013-03-05 08:48:00,34.7,21.5,29.87,NNW,339,4.0,10.0,58,0.00,,---,0.00,VWS V14.00,2013-03-05 13:48:00,
2013-03-05 08:51:00,34.7,21.5,29.87,NNW,342,2.0,10.0,58,0.00,,---,0.00,VWS V14.00,2013-03-05 13:51:00,
2013-03-05 08:52:00,34.7,21.9,29.87,North,350,1.0,10.0,59,0.00,,---,0.00,VWS V14.00,2013-03-05 13:52:00,
2013-03-05 08:54:00,34.9,22.0,29.87,North,359,2.0,10.0,59,0.00,,---,0.00,VWS V14.00,2013-03-05 13:54:00,
2013-03-05 08:56:00,34.9,21.6,29.87,North,359,3.0,10.0,58,0.00,,---,0.00,VWS V14.00,2013-03-05 13:56:00,
2013-03-05 08:57:00,34.9,21.6,29.87,North,352,1.0,10.0,58,0.00,,---,0.00,VWS V14.00,2013-03-05 13:57:00,
2013-03-05 08:59:00,34.9,21.6,29.87,NNW,338,4.0,10.0,58,0.00,,---,0.00,VWS V14.00,2013-03-05 13:59:00,
2013-03-05 09:00:00,38.0,23.7,29.88,NNE,24,1.0,14.0,56,0.00,,---,0.00,VWS V14.00,2013-03-05 14:00:00,
2013-03-05 09:01:00,35.0,21.7,29.87,NW,324,6.0,8.0,58,0.00,,---,0.00,VWS V14.00,2013-03-05 14:01:00,
2013-03-05 09:02:00,35.0,21.7,29.87,NNW,347,2.0,8.0,58,0.00,,---,0.00,VWS V14.00,2013-03-05 14:02:00,
2013-03-05 09:03:00,35.0,21.7,29.87,NNW,347,2.0,8.0,58,0.00,,---,0.00,VWS V14.00,2013-03-05 14:03:00,
2013-03-05 09:04:00,35.2,22.3,29.87,North,349,2.0,8.0,59,0.00,,---,0.00,VWS V14.00,2013-03-05 14:04:00,
2013-03-05 09:06:00,35.2,21.9,29.87,North,359,0.0,8.0,58,0.00,,---,0.00,VWS V14.00,2013-03-05 14:06:00,
2013-03-05 09:08:00,35.3,22.0,29.87,NNW,335,7.0,14.0,58,0.00,,---,0.00,VWS V14.00,2013-03-05 14:08:00,
2013-03-05 09:09:00,35.3,22.0,29.87,NW,316,2.0,14.0,58,0.00,,---,0.00,VWS V14.00,2013-03-05 14:09:00,
2013-03-05 09:11:00,35.3,22.0,29.87,NNW,342,0.0,14.0,58,0.00,,---,0.00,VWS V14.00,2013-03-05 14:11:00,
2013-03-05 09:13:00,35.3,22.4,29.87,North,352,4.0,14.0,59,0.00,,---,0.00,VWS V14.00,2013-03-05 14:13:00,
2013-03-05 09:15:00,35.5,22.2,29.88,NNW,342,2.0,3.0,58,0.00,,---,0.00,VWS V14.00,2013-03-05 14:15:00,
2013-03-05 09:17:00,35.6,22.3,29.88,North,3,2.0,4.0,58,0.00,,---,0.00,VWS V14.00,2013-03-05 14:17:00,
2013-03-05 09:18:00,35.6,22.3,29.88,NNW,347,2.0,4.0,58,0.00,,---,0.00,VWS V14.00,2013-03-05 14:18:00,
2013-03-05 09:20:00,35.8,22.5,29.88,North,356,3.0,6.0,58,0.00,,---,0.00,VWS V14.00,2013-03-05 14:20:00,
2013-03-05 09:22:00,35.8,22.5,29.88,North,353,1.0,12.0,58,0.00,,---,0.00,VWS V14.00,2013-03-05 14:22:00,
2013-03-05 09:23:00,35.8,22.5,29.88,NW,324,4.0,12.0,58,0.00,,---,0.00,VWS V14.00,2013-03-05 14:23:00,
2013-03-05 09:25:00,35.9,22.6,29.88,NNW,328,1.0,12.0,58,0.00,,---,0.00,VWS V14.00,2013-03-05 14:25:00,
2013-03-05 09:27:00,35.9,22.6,29.88,NNE,23,4.0,12.0,58,0.00,,---,0.00,VWS V14.00,2013-03-05 14:27:00,
2013-03-05 09:28:00,36.0,22.7,29.88,NNE,30,0.0,12.0,58,0.00,,---,0.00,VWS V14.00,2013-03-05 14:28:00,
2013-03-05 09:30:00,36.0,22.7,29.88,NW,309,5.0,6.0,58,0.00,,---,0.00,VWS V14.00,2013-03-05 14:30:00,
2013-03-05 09:32:00,36.2,22.9,29.88,North,356,3.0,10.0,58,0.00,,---,0.00,VWS V14.00,2013-03-05 14:32:00,
2013-03-05 09:33:00,36.2,22.9,29.88,NNW,343,2.0,10.0,58,0.00,,---,0.00,VWS V14.00,2013-03-05 14:33:00,
2013-03-05 09:34:00,36.2,22.9,29.88,North,359,2.0,10.0,58,0.00,,---,0.00,VWS V14.00,2013-03-05 14:34:00,
2013-03-05 09:35:00,36.2,22.9,29.88,NW,326,3.0,10.0,58,0.00,,---,0.00,VWS V14.00,2013-03-05 14:35:00,
2013-03-05 09:37:00,36.2,22.9,29.88,NNW,333,2.0,10.0,58,0.00,,---,0.00,VWS V14.00,2013-03-05 14:37:00,
2013-03-05 09:38:00,36.3,23.0,29.88,NNE,13,2.0,10.0,58,0.00,,---,0.00,VWS V14.00,2013-03-05 14:38:00,
2013-03-05 09:39:00,36.3,23.0,29.88,NE,35,1.0,10.0,58,0.00,,---,0.00,VWS V14.00,2013-03-05 14:39:00,
2013-03-05 09:40:00,36.5,23.1,29.88,NE,34,0.0,10.0,58,0.00,,---,0.00,VWS V14.00,2013-03-05 14:40:00,
2013-03-05 09:42:00,36.6,23.2,29.88,NW,314,6.0,10.0,58,0.00,,---,0.00,VWS V14.00,2013-03-05 14:42:00,
2013-03-05 09:43:00,36.6,22.8,29.88,NNW,344,2.0,10.0,57,0.00,,---,0.00,VWS V14.00,2013-03-05 14:43:00,
2013-03-05 09:44:00,36.6,22.8,29.88,NNW,347,3.0,10.0,57,0.00,,---,0.00,VWS V14.00,2013-03-05 14:44:00,
2013-03-05 09:45:00,36.8,23.0,29.88,NNW,338,1.0,3.0,57,0.00,,---,0.00,VWS V14.00,2013-03-05 14:45:00,
2013-03-05 09:47:00,36.9,23.1,29.88,NNE,31,0.0,6.0,57,0.00,,---,0.00,VWS V14.00,2013-03-05 14:47:00,
2013-03-05 09:48:00,37.0,23.2,29.88,North,352,2.0,6.0,57,0.00,,---,0.00,VWS V14.00,2013-03-05 14:48:00,
2013-03-05 09:49:00,37.0,23.2,29.88,NNW,345,5.0,6.0,57,0.00,,---,0.00,VWS V14.00,2013-03-05 14:49:00,
2013-03-05 09:50:00,37.3,23.5,29.88,North,1,2.0,6.0,57,0.00,,---,0.00,VWS V14.00,2013-03-05 14:50:00,
2013-03-05 09:52:00,37.6,23.8,29.88,NNW,329,6.0,6.0,57,0.00,,---,0.00,VWS V14.00,2013-03-05 14:52:00,
2013-03-05 09:53:00,37.8,24.0,29.88,North,1,4.0,6.0,57,0.00,,---,0.00,VWS V14.00,2013-03-05 14:53:00,
2013-03-05 09:54:00,37.8,23.5,29.88,NNE,15,3.0,6.0,56,0.00,,---,0.00,VWS V14.00,2013-03-05 14:54:00,
2013-03-05 09:55:00,37.9,23.6,29.88,NE,48,1.0,6.0,56,0.00,,---,0.00,VWS V14.00,2013-03-05 14:55:00,
2013-03-05 09:57:00,38.0,23.7,29.88,North,359,10.0,14.0,56,0.00,,---,0.00,VWS V14.00,2013-03-05 14:57:00,
2013-03-05 09:59:00,38.0,23.7,29.88,NNE,24,1.0,14.0,56,0.00,,---,0.00,VWS V14.00,2013-03-05 14:59:00,
2013-03-05 10:00:00,38.0,23.7,29.88,North,5,0.0,2.0,56,0.00,,---,0.00,VWS V14.00,2013-03-05 15:00:00,
2013-03-05 10:02:00,38.2,23.9,29.88,NE,51,2.0,4.0,56,0.00,,---,0.00,VWS V14.00,2013-03-05 15:02:00,
2013-03-05 10:04:00,38.2,23.9,29.88,North,0,6.0,7.0,56,0.00,,---,0.00,VWS V14.00,2013-03-05 15:04:00,
2013-03-05 10:05:00,38.2,23.5,29.88,NE,37,0.0,7.0,55,0.00,,---,0.00,VWS V14.00,2013-03-05 15:05:00,
2013-03-05 10:07:00,38.2,23.9,29.88,North,357,3.0,7.0,56,0.00,,---,0.00,VWS V14.00,2013-03-05 15:07:00,
2013-03-05 10:09:00,38.2,23.9,29.88,North,0,3.0,7.0,56,0.00,,---,0.00,VWS V14.00,2013-03-05 15:09:00,
2013-03-05 10:10:00,38.2,23.9,29.88,North,1,1.0,7.0,56,0.00,,---,0.00,VWS V14.00,2013-03-05 15:10:00,
2013-03-05 10:12:00,38.3,24.0,29.88,North,10,1.0,7.0,56,0.00,,---,0.00,VWS V14.00,2013-03-05 15:12:00,
2013-03-05 10:14:00,38.3,24.0,29.88,North,0,3.0,7.0,56,0.00,,---,0.00,VWS V14.00,2013-03-05 15:14:00,
2013-03-05 10:15:00,39.8,24.1,29.89,North,11,1.0,5.0,53,0.00,,---,0.00,VWS V14.00,2013-03-05 15:15:00,
2013-03-05 10:16:00,38.3,23.6,29.88,North,353,2.0,5.0,55,0.00,,---,0.00,VWS V14.00,2013-03-05 15:16:00,
2013-03-05 10:18:00,38.2,23.9,29.88,North,0,3.0,5.0,56,0.00,,---,0.00,VWS V14.00,2013-03-05 15:18:00,
2013-03-05 10:19:00,38.2,23.9,29.88,North,359,0.0,7.0,56,0.00,,---,0.00,VWS V14.00,2013-03-05 15:19:00,
2013-03-05 10:21:00,38.2,23.9,29.88,NNE,15,2.0,7.0,56,0.00,,---,0.00,VWS V14.00,2013-03-05 15:21:00,
2013-03-05 10:23:00,38.2,23.9,29.88,NE,55,2.0,7.0,56,0.00,,---,0.00,VWS V14.00,2013-03-05 15:23:00,
2013-03-05 10:24:00,38.2,23.9,29.88,NNE,18,0.0,7.0,56,0.00,,---,0.00,VWS V14.00,2013-03-05 15:24:00,
2013-03-05 10:26:00,38.2,23.9,29.88,NE,51,1.0,7.0,56,0.00,,---,0.00,VWS V14.00,2013-03-05 15:26:00,
2013-03-05 10:28:00,38.2,23.9,29.88,NNE,12,1.0,7.0,56,0.00,,---,0.00,VWS V14.00,2013-03-05 15:28:00,
2013-03-05 10:29:00,38.3,24.0,29.88,North,9,2.0,2.0,56,0.00,,---,0.00,VWS V14.00,2013-03-05 15:29:00,
2013-03-05 10:30:00,39.8,24.5,29.89,North,9,1.0,6.0,54,0.00,,---,0.00,VWS V14.00,2013-03-05 15:30:00,
2013-03-05 10:31:00,38.3,24.0,29.88,ENE,65,0.0,2.0,56,0.00,,---,0.00,VWS V14.00,2013-03-05 15:31:00,
2013-03-05 10:33:00,38.3,24.0,29.88,NE,39,1.0,8.0,56,0.00,,---,0.00,VWS V14.00,2013-03-05 15:33:00,
2013-03-05 10:34:00,38.5,24.2,29.88,North,4,4.0,8.0,56,0.00,,---,0.00,VWS V14.00,2013-03-05 15:34:00,
2013-03-05 10:35:00,38.5,24.2,29.88,North,4,3.0,8.0,56,0.00,,---,0.00,VWS V14.00,2013-03-05 15:35:00,
2013-03-05 10:36:00,38.5,23.8,29.88,ENE,75,0.0,8.0,55,0.00,,---,0.00,VWS V14.00,2013-03-05 15:36:00,
2013-03-05 10:38:00,38.5,23.8,29.88,ENE,63,0.0,8.0,55,0.00,,---,0.00,VWS V14.00,2013-03-05 15:38:00,
2013-03-05 10:40:00,38.6,24.3,29.88,NW,321,5.0,8.0,56,0.00,,---,0.00,VWS V14.00,2013-03-05 15:40:00,
2013-03-05 10:41:00,38.6,23.8,29.88,NNW,334,0.0,8.0,55,0.00,,---,0.00,VWS V14.00,2013-03-05 15:41:00,
2013-03-05 10:43:00,38.8,24.0,29.88,NNW,342,3.0,8.0,55,0.00,,---,0.00,VWS V14.00,2013-03-05 15:43:00,
2013-03-05 10:45:00,38.8,24.0,29.88,NW,323,0.0,0.0,55,0.00,,---,0.00,VWS V14.00,2013-03-05 15:45:00,
2013-03-05 10:46:00,38.9,24.1,29.88,NE,49,1.0,1.0,55,0.00,,---,0.00,VWS V14.00,2013-03-05 15:46:00,
2013-03-05 10:48:00,39.1,24.3,29.88,NNE,18,0.0,6.0,55,0.00,,---,0.00,VWS V14.00,2013-03-05 15:48:00,
2013-03-05 10:50:00,39.1,24.3,29.88,NNE,14,3.0,6.0,55,0.00,,---,0.00,VWS V14.00,2013-03-05 15:50:00,
2013-03-05 10:51:00,39.1,24.3,29.88,North,1,2.0,6.0,55,0.00,,---,0.00,VWS V14.00,2013-03-05 15:51:00,
2013-03-05 10:53:00,39.2,24.4,29.88,North,359,2.0,6.0,55,0.00,,---,0.00,VWS V14.00,2013-03-05 15:53:00,
2013-03-05 10:55:00,39.2,24.0,29.88,North,3,2.0,6.0,54,0.00,,---,0.00,VWS V14.00,2013-03-05 15:55:00,
2013-03-05 10:56:00,39.3,24.5,29.88,North,3,0.0,6.0,55,0.00,,---,0.00,VWS V14.00,2013-03-05 15:56:00,
2013-03-05 10:58:00,39.3,24.1,29.88,North,356,0.0,6.0,54,0.00,,---,0.00,VWS V14.00,2013-03-05 15:58:00,
2013-03-05 11:00:00,39.5,24.2,29.88,ENE,66,1.0,3.0,54,0.00,,---,0.00,VWS V14.00,2013-03-05 16:00:00,
2013-03-05 11:01:00,39.6,24.8,29.88,ENE,71,3.0,4.0,55,0.00,,---,0.00,VWS V14.00,2013-03-05 16:01:00,
2013-03-05 11:03:00,39.6,23.9,29.88,East,81,2.0,5.0,53,0.00,,---,0.00,VWS V14.00,2013-03-05 16:03:00,
2013-03-05 11:05:00,39.5,23.8,29.88,NE,44,2.0,5.0,53,0.00,,---,0.00,VWS V14.00,2013-03-05 16:05:00,
2013-03-05 11:06:00,39.5,24.2,29.88,ENE,63,0.0,5.0,54,0.00,,---,0.00,VWS V14.00,2013-03-05 16:06:00,
2013-03-05 11:08:00,39.5,24.7,29.88,NE,39,2.0,5.0,55,0.00,,---,0.00,VWS V14.00,2013-03-05 16:08:00,
2013-03-05 11:10:00,39.6,24.3,29.88,NE,39,0.0,5.0,54,0.00,,---,0.00,VWS V14.00,2013-03-05 16:10:00,
2013-03-05 11:11:00,39.6,24.3,29.88,NE,55,0.0,5.0,54,0.00,,---,0.00,VWS V14.00,2013-03-05 16:11:00,
2013-03-05 11:13:00,39.8,24.5,29.89,North,0,3.0,5.0,54,0.00,,---,0.00,VWS V14.00,2013-03-05 16:13:00,
2013-03-05 11:15:00,39.8,24.1,29.89,North,9,0.0,1.0,53,0.00,,---,0.00,VWS V14.00,2013-03-05 16:15:00,
2013-03-05 11:16:00,39.8,24.1,29.89,North,9,0.0,1.0,53,0.00,,---,0.00,VWS V14.00,2013-03-05 16:16:00,
2013-03-05 11:18:00,39.8,24.5,29.89,NNE,30,3.0,3.0,54,0.00,,---,0.00,VWS V14.00,2013-03-05 16:18:00,
2013-03-05 11:20:00,39.8,24.5,29.89,North,5,0.0,4.0,54,0.00,,---,0.00,VWS V14.00,2013-03-05 16:20:00,
2013-03-05 11:21:00,39.8,24.5,29.89,North,5,0.0,4.0,54,0.00,,---,0.00,VWS V14.00,2013-03-05 16:21:00,
2013-03-05 11:23:00,39.9,24.2,29.89,North,5,1.0,4.0,53,0.00,,---,0.00,VWS V14.00,2013-03-05 16:23:00,
2013-03-05 11:25:00,39.8,24.1,29.89,NNW,336,3.0,4.0,53,0.00,,---,0.00,VWS V14.00,2013-03-05 16:25:00,
2013-03-05 11:26:00,39.8,24.1,29.89,NNW,336,1.0,4.0,53,0.00,,---,0.00,VWS V14.00,2013-03-05 16:26:00,
2013-03-05 11:29:00,39.8,24.5,29.89,North,7,1.0,6.0,54,0.00,,---,0.00,VWS V14.00,2013-03-05 16:29:00,
2013-03-05 11:30:00,39.8,24.5,29.89,North,9,0.0,1.0,54,0.00,,---,0.00,VWS V14.00,2013-03-05 16:30:00,
2013-03-05 11:31:00,39.8,24.5,29.89,North,8,0.0,1.0,54,0.00,,---,0.00,VWS V14.00,2013-03-05 16:31:00,
2013-03-05 11:34:00,39.9,24.2,29.89,North,11,0.0,5.0,53,0.00,,---,0.00,VWS V14.00,2013-03-05 16:34:00,
2013-03-05 11:36:00,40.1,24.8,29.89,WNW,290,0.0,5.0,54,0.00,,---,0.00,VWS V14.00,2013-03-05 16:36:00,
2013-03-05 11:37:00,40.2,24.5,29.89,NNW,347,3.0,5.0,53,0.00,,---,0.00,VWS V14.00,2013-03-05 16:37:00,
2013-03-05 11:39:00,40.3,24.5,29.89,NNW,343,0.0,5.0,53,0.00,,---,0.00,VWS V14.00,2013-03-05 16:39:00,
2013-03-05 11:41:00,40.3,24.5,29.89,NNW,344,2.0,5.0,53,0.00,,---,0.00,VWS V14.00,2013-03-05 16:41:00,
2013-03-05 11:42:00,40.5,24.7,29.89,NNW,342,1.0,5.0,53,0.00,,---,0.00,VWS V14.00,2013-03-05 16:42:00,
2013-03-05 11:44:00,40.6,24.8,29.89,NNW,343,0.0,5.0,53,0.00,,---,0.00,VWS V14.00,2013-03-05 16:44:00,
2013-03-05 11:45:00,42.8,25.0,29.89,NE,44,1.0,9.0,49,0.00,,---,0.00,VWS V14.00,2013-03-05 16:45:00,
2013-03-05 11:46:00,40.6,24.8,29.89,NNW,342,1.0,2.0,53,0.00,,---,0.00,VWS V14.00,2013-03-05 16:46:00,
2013-03-05 11:47:00,40.9,24.6,29.89,NNW,342,0.0,2.0,52,0.00,,---,0.00,VWS V14.00,2013-03-05 16:47:00,
2013-03-05 11:49:00,41.2,24.9,29.89,NNW,342,1.0,2.0,52,0.00,,---,0.00,VWS V14.00,2013-03-05 16:49:00,
2013-03-05 11:51:00,41.3,25.0,29.89,North,0,2.0,3.0,52,0.00,,---,0.00,VWS V14.00,2013-03-05 16:51:00,
2013-03-05 11:53:00,41.6,24.8,29.89,North,355,0.0,4.0,51,0.00,,---,0.00,VWS V14.00,2013-03-05 16:53:00,
2013-03-05 11:54:00,41.6,24.8,29.89,North,354,4.0,4.0,51,0.00,,---,0.00,VWS V14.00,2013-03-05 16:54:00,
2013-03-05 11:56:00,41.8,25.0,29.89,North,354,0.0,4.0,51,0.00,,---,0.00,VWS V14.00,2013-03-05 16:56:00,
2013-03-05 11:59:00,41.9,24.6,29.89,NE,44,0.0,4.0,50,0.00,,---,0.00,VWS V14.00,2013-03-05 16:59:00,
2013-03-05 12:00:00,43.8,24.9,29.89,NNE,29,0.0,5.0,47,0.00,,---,0.00,VWS V14.00,2013-03-05 17:00:00,
2013-03-05 12:01:00,42.1,24.8,29.89,NNE,27,0.0,3.0,50,0.00,,---,0.00,VWS V14.00,2013-03-05 17:01:00,
2013-03-05 12:04:00,42.2,24.9,29.89,NNW,343,4.0,4.0,50,0.00,,---,0.00,VWS V14.00,2013-03-05 17:04:00,
2013-03-05 12:06:00,42.1,24.8,29.89,NNE,23,0.0,4.0,50,0.00,,---,0.00,VWS V14.00,2013-03-05 17:06:00,
2013-03-05 12:09:00,42.3,25.0,29.89,NNE,23,0.0,4.0,50,0.00,,---,0.00,VWS V14.00,2013-03-05 17:09:00,
2013-03-05 12:10:00,42.3,25.0,29.89,NNE,23,0.0,4.0,50,0.00,,---,0.00,VWS V14.00,2013-03-05 17:10:00,
2013-03-05 12:11:00,42.3,24.5,29.89,NW,325,3.0,4.0,49,0.00,,---,0.00,VWS V14.00,2013-03-05 17:11:00,
2013-03-05 12:14:00,42.3,25.0,29.89,NNW,332,1.0,5.0,50,0.00,,---,0.00,VWS V14.00,2013-03-05 17:14:00,
2013-03-05 12:15:00,42.2,24.9,29.89,NNW,332,0.0,3.0,50,0.00,,---,0.00,VWS V14.00,2013-03-05 17:15:00,
2013-03-05 12:16:00,42.2,24.9,29.89,NNW,332,0.0,3.0,50,0.00,,---,0.00,VWS V14.00,2013-03-05 17:16:00,
2013-03-05 12:17:00,42.3,25.0,29.89,SW,229,1.0,3.0,50,0.00,,---,0.00,VWS V14.00,2013-03-05 17:17:00,
2013-03-05 12:19:00,42.6,25.3,29.89,SW,229,1.0,3.0,50,0.00,,---,0.00,VWS V14.00,2013-03-05 17:19:00,
2013-03-05 12:20:00,42.8,25.0,29.89,SW,229,0.0,3.0,49,0.00,,---,0.00,VWS V14.00,2013-03-05 17:20:00,
2013-03-05 12:21:00,42.8,25.0,29.89,NNW,330,1.0,4.0,49,0.00,,---,0.00,VWS V14.00,2013-03-05 17:21:00,
2013-03-05 12:22:00,42.8,24.5,29.89,NNW,345,4.0,4.0,48,0.00,,---,0.00,VWS V14.00,2013-03-05 17:22:00,
2013-03-05 12:24:00,42.8,25.0,29.89,ENE,71,2.0,5.0,49,0.00,,---,0.00,VWS V14.00,2013-03-05 17:24:00,
2013-03-05 12:25:00,42.8,25.0,29.89,ENE,70,3.0,5.0,49,0.00,,---,0.00,VWS V14.00,2013-03-05 17:25:00,
2013-03-05 12:26:00,42.6,24.8,29.89,NE,52,1.0,6.0,49,0.00,,---,0.00,VWS V14.00,2013-03-05 17:26:00,
2013-03-05 12:27:00,42.6,24.8,29.89,East,79,3.0,6.0,49,0.00,,---,0.00,VWS V14.00,2013-03-05 17:27:00,
2013-03-05 12:29:00,42.3,25.0,29.89,NE,51,1.0,6.0,50,0.00,,---,0.00,VWS V14.00,2013-03-05 17:29:00,
2013-03-05 12:30:00,42.3,24.5,29.89,ENE,75,0.0,2.0,49,0.00,,---,0.00,VWS V14.00,2013-03-05 17:30:00,
2013-03-05 12:32:00,42.3,25.0,29.89,NE,55,1.0,9.0,50,0.00,,---,0.00,VWS V14.00,2013-03-05 17:32:00,
2013-03-05 12:34:00,42.3,25.0,29.89,ENE,70,2.0,9.0,50,0.00,,---,0.00,VWS V14.00,2013-03-05 17:34:00,
2013-03-05 12:35:00,42.2,24.9,29.89,North,9,1.0,9.0,50,0.00,,---,0.00,VWS V14.00,2013-03-05 17:35:00,
2013-03-05 12:37:00,42.2,24.9,29.89,NNE,13,0.0,9.0,50,0.00,,---,0.00,VWS V14.00,2013-03-05 17:37:00,
2013-03-05 12:39:00,42.2,24.9,29.89,NNE,13,0.0,9.0,50,0.00,,---,0.00,VWS V14.00,2013-03-05 17:39:00,
2013-03-05 12:40:00,42.2,24.9,29.89,NNE,13,0.0,9.0,50,0.00,,---,0.00,VWS V14.00,2013-03-05 17:40:00,
2013-03-05 12:42:00,42.3,25.0,29.89,NE,40,2.0,9.0,50,0.00,,---,0.00,VWS V14.00,2013-03-05 17:42:00,
2013-03-05 12:44:00,42.8,25.0,29.89,NE,44,1.0,9.0,49,0.00,,---,0.00,VWS V14.00,2013-03-05 17:44:00,
2013-03-05 12:45:00,42.9,25.6,29.89,NE,44,1.0,1.0,50,0.00,,---,0.00,VWS V14.00,2013-03-05 17:45:00,
2013-03-05 12:47:00,43.2,25.4,29.89,NE,37,0.0,2.0,49,0.00,,---,0.00,VWS V14.00,2013-03-05 17:47:00,
2013-03-05 12:48:00,43.3,25.4,29.89,NE,37,0.0,2.0,49,0.00,,---,0.00,VWS V14.00,2013-03-05 17:48:00,
2013-03-05 12:49:00,43.6,25.2,29.89,ENE,74,4.0,5.0,48,0.00,,---,0.00,VWS V14.00,2013-03-05 17:49:00,
2013-03-05 12:50:00,43.8,24.9,29.89,ENE,77,5.0,5.0,47,0.00,,---,0.00,VWS V14.00,2013-03-05 17:50:00,
2013-03-05 12:52:00,43.8,24.9,29.89,ENE,64,1.0,5.0,47,0.00,,---,0.00,VWS V14.00,2013-03-05 17:52:00,
2013-03-05 12:53:00,43.6,24.7,29.89,East,80,0.0,5.0,47,0.00,,---,0.00,VWS V14.00,2013-03-05 17:53:00,
2013-03-05 12:54:00,43.8,24.9,29.89,ENE,68,2.0,5.0,47,0.00,,---,0.00,VWS V14.00,2013-03-05 17:54:00,
2013-03-05 12:55:00,43.8,24.9,29.89,North,1,1.0,5.0,47,0.00,,---,0.00,VWS V14.00,2013-03-05 17:55:00,
2013-03-05 12:57:00,43.8,24.9,29.89,NE,50,1.0,5.0,47,0.00,,---,0.00,VWS V14.00,2013-03-05 17:57:00,
2013-03-05 12:58:00,43.8,24.9,29.89,NE,51,0.0,5.0,47,0.00,,---,0.00,VWS V14.00,2013-03-05 17:58:00,
2013-03-05 12:59:00,43.8,24.9,29.89,NNE,29,0.0,0.0,47,0.00,,---,0.00,VWS V14.00,2013-03-05 17:59:00,
2013-03-05 13:00:00,43.9,25.0,29.89,NNE,29,0.0,0.0,47,0.00,,---,0.00,VWS V14.00,2013-03-05 18:00:00,
2013-03-05 13:02:00,43.9,25.0,29.89,North,359,3.0,4.0,47,0.00,,---,0.00,VWS V14.00,2013-03-05 18:02:00,
2013-03-05 13:03:00,43.9,25.0,29.89,North,1,4.0,4.0,47,0.00,,---,0.00,VWS V14.00,2013-03-05 18:03:00,
2013-03-05 13:04:00,43.8,24.9,29.89,ENE,65,0.0,4.0,47,0.00,,---,0.00,VWS V14.00,2013-03-05 18:04:00,
2013-03-05 13:06:00,43.6,24.7,29.89,NNE,30,2.0,4.0,47,0.00,,---,0.00,VWS V14.00,2013-03-05 18:06:00,
2013-03-05 13:08:00,43.5,24.6,29.89,North,6,1.0,4.0,47,0.00,,---,0.00,VWS V14.00,2013-03-05 18:08:00,
2013-03-05 13:10:00,43.3,24.9,29.89,North,6,0.0,4.0,48,0.00,,---,0.00,VWS V14.00,2013-03-05 18:10:00,
2013-03-05 13:11:00,43.3,24.9,29.89,North,6,2.0,4.0,48,0.00,,---,0.00,VWS V14.00,2013-03-05 18:11:00,
2013-03-05 13:13:00,43.2,24.9,29.89,North,357,0.0,4.0,48,0.00,,---,0.00,VWS V14.00,2013-03-05 18:13:00,
2013-03-05 13:15:00,43.1,24.8,29.90,North,350,1.0,2.0,48,0.00,,---,0.00,VWS V14.00,2013-03-05 18:15:00,
2013-03-05 13:16:00,42.9,25.1,29.90,ENE,74,0.0,2.0,49,0.00,,---,0.00,VWS V14.00,2013-03-05 18:16:00,
2013-03-05 13:18:00,42.9,25.1,29.90,ENE,74,0.0,2.0,49,0.00,,---,0.00,VWS V14.00,2013-03-05 18:18:00,
2013-03-05 13:19:00,42.9,25.1,29.90,ENE,74,0.0,2.0,49,0.00,,---,0.00,VWS V14.00,2013-03-05 18:19:00,
2013-03-05 13:20:00,42.9,25.1,29.90,ENE,74,0.0,2.0,49,0.00,,---,0.00,VWS V14.00,2013-03-05 18:20:00,
2013-03-05 13:21:00,42.9,25.1,29.90,ENE,74,0.0,2.0,49,0.00,,---,0.00,VWS V14.00,2013-03-05 18:21:00,
2013-03-05 13:23:00,42.9,25.6,29.90,ENE,73,1.0,2.0,50,0.00,,---,0.00,VWS V14.00,2013-03-05 18:23:00,
2013-03-05 13:24:00,42.9,25.6,29.90,ENE,73,1.0,2.0,50,0.00,,---,0.00,VWS V14.00,2013-03-05 18:24:00,
2013-03-05 13:25:00,42.9,25.1,29.90,ENE,73,0.0,2.0,49,0.00,,---,0.00,VWS V14.00,2013-03-05 18:25:00,
2013-03-05 13:26:00,43.1,25.3,29.90,ENE,68,1.0,3.0,49,0.00,,---,0.00,VWS V14.00,2013-03-05 18:26:00,
2013-03-05 13:28:00,42.9,25.1,29.90,North,1,2.0,3.0,49,0.00,,---,0.00,VWS V14.00,2013-03-05 18:28:00,
2013-03-05 13:29:00,42.9,25.6,29.90,North,1,1.0,3.0,50,0.00,,---,0.00,VWS V14.00,2013-03-05 18:29:00,
2013-03-05 13:30:00,42.9,25.6,29.90,ENE,60,1.0,2.0,50,0.00,,---,0.00,VWS V14.00,2013-03-05 18:30:00,
2013-03-05 13:31:00,42.9,25.6,29.90,NE,47,3.0,3.0,50,0.00,,---,0.00,VWS V14.00,2013-03-05 18:31:00,
2013-03-05 13:33:00,42.9,25.6,29.90,East,98,2.0,3.0,50,0.00,,---,0.00,VWS V14.00,2013-03-05 18:33:00,
2013-03-05 13:34:00,42.9,25.6,29.90,East,82,2.0,3.0,50,0.00,,---,0.00,VWS V14.00,2013-03-05 18:34:00,
2013-03-05 13:35:00,42.9,25.6,29.90,East,83,0.0,3.0,50,0.00,,---,0.00,VWS V14.00,2013-03-05 18:35:00,
2013-03-05 13:36:00,43.1,25.7,29.90,East,83,0.0,3.0,50,0.00,,---,0.00,VWS V14.00,2013-03-05 18:36:00,
2013-03-05 13:38:00,43.1,25.7,29.90,NNE,20,0.0,3.0,50,0.00,,---,0.00,VWS V14.00,2013-03-05 18:38:00,
2013-03-05 13:39:00,43.2,25.8,29.90,NNE,20,0.0,3.0,50,0.00,,---,0.00,VWS V14.00,2013-03-05 18:39:00,
2013-03-05 13:40:00,43.2,25.8,29.90,NNE,20,0.0,3.0,50,0.00,,---,0.00,VWS V14.00,2013-03-05 18:40:00,
2013-03-05 13:41:00,43.3,25.9,29.90,NNE,20,1.0,3.0,50,0.00,,---,0.00,VWS V14.00,2013-03-05 18:41:00,
2013-03-05 13:43:00,43.5,26.1,29.90,NNE,18,0.0,3.0,50,0.00,,---,0.00,VWS V14.00,2013-03-05 18:43:00,
2013-03-05 13:44:00,43.5,25.6,29.90,ENE,57,0.0,1.0,49,0.00,,---,0.00,VWS V14.00,2013-03-05 18:44:00,
2013-03-05 13:45:00,43.6,25.7,29.90,ENE,64,1.0,2.0,49,0.00,,---,0.00,VWS V14.00,2013-03-05 18:45:00,
2013-03-05 13:46:00,43.6,26.2,29.90,NNE,16,1.0,2.0,50,0.00,,---,0.00,VWS V14.00,2013-03-05 18:46:00,
2013-03-05 13:48:00,43.8,25.9,29.90,NNE,15,0.0,3.0,49,0.00,,---,0.00,VWS V14.00,2013-03-05 18:48:00,
2013-03-05 13:49:00,43.8,25.9,29.90,NNE,15,0.0,3.0,49,0.00,,---,0.00,VWS V14.00,2013-03-05 18:49:00,
2013-03-05 13:50:00,43.8,25.9,29.90,North,10,0.0,3.0,49,0.00,,---,0.00,VWS V14.00,2013-03-05 18:50:00,
2013-03-05 13:51:00,43.8,25.9,29.90,NE,40,1.0,3.0,49,0.00,,---,0.00,VWS V14.00,2013-03-05 18:51:00,
2013-03-05 13:53:00,43.9,26.0,29.90,NE,40,0.0,3.0,49,0.00,,---,0.00,VWS V14.00,2013-03-05 18:53:00,
2013-03-05 13:54:00,43.9,26.0,29.90,NE,48,2.0,3.0,49,0.00,,---,0.00,VWS V14.00,2013-03-05 18:54:00,
2013-03-05 13:55:00,43.9,26.0,29.90,NE,53,0.0,3.0,49,0.00,,---,0.00,VWS V14.00,2013-03-05 18:55:00,
2013-03-05 13:57:00,44.1,26.2,29.90,NE,53,1.0,3.0,49,0.00,,---,0.00,VWS V14.00,2013-03-05 18:57:00,
2013-03-05 13:58:00,44.1,26.2,29.90,NE,53,0.0,3.0,49,0.00,,---,0.00,VWS V14.00,2013-03-05 18:58:00,
2013-03-05 13:59:00,44.1,26.2,29.90,NE,53,0.0,0.0,49,0.00,,---,0.00,VWS V14.00,2013-03-05 18:59:00,
2013-03-05 14:00:00,43.6,27.1,29.92,ENE,74,1.0,4.0,52,0.00,,---,0.00,VWS V14.00,2013-03-05 19:00:00,
2013-03-05 14:01:00,44.1,26.2,29.90,NE,53,3.0,3.0,49,0.00,,---,0.00,VWS V14.00,2013-03-05 19:01:00,
2013-03-05 14:02:00,44.2,25.8,29.90,NE,55,0.0,4.0,48,0.00,,---,0.00,VWS V14.00,2013-03-05 19:02:00,
2013-03-05 14:04:00,44.1,25.7,29.90,NE,39,1.0,4.0,48,0.00,,---,0.00,VWS V14.00,2013-03-05 19:04:00,
2013-03-05 14:05:00,44.1,25.7,29.90,NE,39,0.0,4.0,48,0.00,,---,0.00,VWS V14.00,2013-03-05 19:05:00,
2013-03-05 14:06:00,44.1,26.2,29.90,NNE,30,1.0,4.0,49,0.00,,---,0.00,VWS V14.00,2013-03-05 19:06:00,
2013-03-05 14:07:00,44.1,25.7,29.90,NE,51,0.0,4.0,48,0.00,,---,0.00,VWS V14.00,2013-03-05 19:07:00,
2013-03-05 14:09:00,44.1,25.7,29.90,NE,47,2.0,4.0,48,0.00,,---,0.00,VWS V14.00,2013-03-05 19:09:00,
2013-03-05 14:10:00,44.1,25.7,29.90,NNW,335,2.0,4.0,48,0.00,,---,0.00,VWS V14.00,2013-03-05 19:10:00,
2013-03-05 14:11:00,44.1,25.7,29.90,NNW,334,0.0,4.0,48,0.00,,---,0.00,VWS V14.00,2013-03-05 19:11:00,
2013-03-05 14:12:00,44.1,25.7,29.90,North,354,3.0,4.0,48,0.00,,---,0.00,VWS V14.00,2013-03-05 19:12:00,
2013-03-05 14:14:00,44.1,25.7,29.90,North,354,0.0,4.0,48,0.00,,---,0.00,VWS V14.00,2013-03-05 19:14:00,
2013-03-05 14:15:00,44.1,26.2,29.90,NE,48,0.0,1.0,49,0.00,,---,0.00,VWS V14.00,2013-03-05 19:15:00,
2013-03-05 14:16:00,44.1,26.2,29.90,NE,48,0.0,1.0,49,0.00,,---,0.00,VWS V14.00,2013-03-05 19:16:00,
2013-03-05 14:17:00,44.1,26.2,29.90,NE,48,1.0,1.0,49,0.00,,---,0.00,VWS V14.00,2013-03-05 19:17:00,
2013-03-05 14:19:00,44.2,25.8,29.90,NE,48,1.0,1.0,48,0.00,,---,0.00,VWS V14.00,2013-03-05 19:19:00,
2013-03-05 14:20:00,44.2,25.8,29.90,NW,316,0.0,3.0,48,0.00,,---,0.00,VWS V14.00,2013-03-05 19:20:00,
2013-03-05 14:21:00,44.2,25.8,29.90,NNW,328,0.0,3.0,48,0.00,,---,0.00,VWS V14.00,2013-03-05 19:21:00,
2013-03-05 14:22:00,44.2,25.8,29.90,North,11,0.0,3.0,48,0.00,,---,0.00,VWS V14.00,2013-03-05 19:22:00,
2013-03-05 14:24:00,44.2,25.8,29.90,North,8,0.0,4.0,48,0.00,,---,0.00,VWS V14.00,2013-03-05 19:24:00,
2013-03-05 14:25:00,44.2,25.8,29.90,NNW,338,2.0,4.0,48,0.00,,---,0.00,VWS V14.00,2013-03-05 19:25:00,
2013-03-05 14:26:00,44.1,25.7,29.90,East,79,0.0,4.0,48,0.00,,---,0.00,VWS V14.00,2013-03-05 19:26:00,
2013-03-05 14:27:00,44.1,25.7,29.90,ENE,76,1.0,4.0,48,0.00,,---,0.00,VWS V14.00,2013-03-05 19:27:00,
2013-03-05 14:29:00,44.1,25.7,29.90,NNW,332,3.0,4.0,48,0.00,,---,0.00,VWS V14.00,2013-03-05 19:29:00,
2013-03-05 14:30:00,44.1,25.7,29.90,NNW,345,0.0,4.0,48,0.00,,---,0.00,VWS V14.00,2013-03-05 19:30:00,
2013-03-05 14:31:00,44.1,26.2,29.90,NNW,345,0.0,4.0,49,0.00,,---,0.00,VWS V14.00,2013-03-05 19:31:00,
2013-03-05 14:32:00,44.1,26.2,29.90,NNW,345,0.0,4.0,49,0.00,,---,0.00,VWS V14.00,2013-03-05 19:32:00,
2013-03-05 14:34:00,44.1,26.2,29.90,ENE,64,0.0,4.0,49,0.00,,---,0.00,VWS V14.00,2013-03-05 19:34:00,
2013-03-05 14:35:00,44.1,26.2,29.90,NE,42,1.0,4.0,49,0.00,,---,0.00,VWS V14.00,2013-03-05 19:35:00,
2013-03-05 14:36:00,43.9,26.0,29.90,North,4,2.0,4.0,49,0.00,,---,0.00,VWS V14.00,2013-03-05 19:36:00,
2013-03-05 14:37:00,43.9,26.0,29.90,North,4,0.0,4.0,49,0.00,,---,0.00,VWS V14.00,2013-03-05 19:37:00,
2013-03-05 14:39:00,43.9,26.0,29.90,North,4,0.0,4.0,49,0.00,,---,0.00,VWS V14.00,2013-03-05 19:39:00,
2013-03-05 14:41:00,43.8,25.9,29.90,NE,56,3.0,4.0,49,0.00,,---,0.00,VWS V14.00,2013-03-05 19:41:00,
2013-03-05 14:42:00,43.6,25.7,29.90,ENE,70,0.0,4.0,49,0.00,,---,0.00,VWS V14.00,2013-03-05 19:42:00,
2013-03-05 14:44:00,43.6,26.2,29.91,East,88,0.0,2.0,50,0.00,,---,0.00,VWS V14.00,2013-03-05 19:44:00,
2013-03-05 14:45:00,42.5,29.2,29.93,East,94,0.0,3.0,59,0.00,,---,0.00,VWS V14.00,2013-03-05 19:45:00,
2013-03-05 14:46:00,43.6,26.2,29.91,North,6,2.0,4.0,50,0.00,,---,0.00,VWS V14.00,2013-03-05 19:46:00,
2013-03-05 14:47:00,43.6,26.2,29.91,North,6,0.0,4.0,50,0.00,,---,0.00,VWS V14.00,2013-03-05 19:47:00,
2013-03-05 14:49:00,43.5,26.1,29.91,North,9,0.0,4.0,50,0.00,,---,0.00,VWS V14.00,2013-03-05 19:49:00,
2013-03-05 14:51:00,43.5,26.1,29.91,North,9,0.0,4.0,50,0.00,,---,0.00,VWS V14.00,2013-03-05 19:51:00,
2013-03-05 14:52:00,43.5,26.1,29.91,North,9,0.0,4.0,50,0.00,,---,0.00,VWS V14.00,2013-03-05 19:52:00,
2013-03-05 14:54:00,43.6,26.2,29.91,North,9,0.0,4.0,50,0.00,,---,0.00,VWS V14.00,2013-03-05 19:54:00,
2013-03-05 14:56:00,43.6,26.2,29.91,North,9,0.0,4.0,50,0.00,,---,0.00,VWS V14.00,2013-03-05 19:56:00,
2013-03-05 14:57:00,43.6,26.2,29.91,ESE,117,2.0,4.0,50,0.00,,---,0.00,VWS V14.00,2013-03-05 19:57:00,
2013-03-05 14:58:00,43.6,26.7,29.91,SE,140,0.0,4.0,51,0.00,,---,0.00,VWS V14.00,2013-03-05 19:58:00,
2013-03-05 15:00:00,43.6,27.6,29.92,East,81,2.0,2.0,53,0.00,,---,0.00,VWS V14.00,2013-03-05 20:00:00,
2013-03-05 15:01:00,43.6,27.6,29.92,ESE,110,3.0,5.0,53,0.00,,---,0.00,VWS V14.00,2013-03-05 20:01:00,
2013-03-05 15:02:00,43.5,28.0,29.92,East,79,0.0,5.0,54,0.00,,---,0.00,VWS V14.00,2013-03-05 20:02:00,
2013-03-05 15:03:00,43.3,27.8,29.92,SE,126,1.0,5.0,54,0.00,,---,0.00,VWS V14.00,2013-03-05 20:03:00,
2013-03-05 15:05:00,43.2,28.1,29.92,ESE,112,2.0,5.0,55,0.00,,---,0.00,VWS V14.00,2013-03-05 20:05:00,
2013-03-05 15:06:00,43.2,28.6,29.92,ESE,103,0.0,5.0,56,0.00,,---,0.00,VWS V14.00,2013-03-05 20:06:00,
2013-03-05 15:07:00,43.2,28.6,29.92,ESE,104,1.0,5.0,56,0.00,,---,0.00,VWS V14.00,2013-03-05 20:07:00,
2013-03-05 15:08:00,43.1,28.5,29.92,ESE,104,0.0,5.0,56,0.00,,---,0.00,VWS V14.00,2013-03-05 20:08:00,
2013-03-05 15:10:00,43.1,28.5,29.92,ENE,62,2.0,5.0,56,0.00,,---,0.00,VWS V14.00,2013-03-05 20:10:00,
2013-03-05 15:11:00,42.9,28.7,29.92,ENE,62,0.0,5.0,57,0.00,,---,0.00,VWS V14.00,2013-03-05 20:11:00,
2013-03-05 15:12:00,42.9,28.7,29.92,ENE,64,1.0,5.0,57,0.00,,---,0.00,VWS V14.00,2013-03-05 20:12:00,
2013-03-05 15:13:00,42.9,28.7,29.92,ENE,65,0.0,5.0,57,0.00,,---,0.00,VWS V14.00,2013-03-05 20:13:00,
2013-03-05 15:15:00,42.9,29.2,29.92,ENE,63,0.0,2.0,58,0.00,,---,0.00,VWS V14.00,2013-03-05 20:15:00,
2013-03-05 15:16:00,42.9,29.2,29.92,SSE,150,0.0,3.0,58,0.00,,---,0.00,VWS V14.00,2013-03-05 20:16:00,
2013-03-05 15:17:00,42.8,29.1,29.92,SE,127,0.0,3.0,58,0.00,,---,0.00,VWS V14.00,2013-03-05 20:17:00,
2013-03-05 15:18:00,42.8,29.1,29.92,ESE,120,0.0,3.0,58,0.00,,---,0.00,VWS V14.00,2013-03-05 20:18:00,
2013-03-05 15:20:00,42.8,29.1,29.92,ESE,108,1.0,3.0,58,0.00,,---,0.00,VWS V14.00,2013-03-05 20:20:00,
2013-03-05 15:21:00,42.6,28.9,29.92,East,93,1.0,3.0,58,0.00,,---,0.00,VWS V14.00,2013-03-05 20:21:00,
2013-03-05 15:22:00,42.6,28.9,29.92,East,93,0.0,3.0,58,0.00,,---,0.00,VWS V14.00,2013-03-05 20:22:00,
2013-03-05 15:23:00,42.6,28.9,29.92,SE,127,2.0,3.0,58,0.00,,---,0.00,VWS V14.00,2013-03-05 20:23:00,
2013-03-05 15:25:00,42.5,29.2,29.92,SE,125,0.0,3.0,59,0.00,,---,0.00,VWS V14.00,2013-03-05 20:25:00,
2013-03-05 15:26:00,42.5,29.2,29.92,SE,125,0.0,3.0,59,0.00,,---,0.00,VWS V14.00,2013-03-05 20:26:00,
2013-03-05 15:27:00,42.5,29.2,29.92,SE,125,1.0,3.0,59,0.00,,---,0.00,VWS V14.00,2013-03-05 20:27:00,
2013-03-05 15:28:00,42.5,29.2,29.93,SE,125,0.0,3.0,59,0.00,,---,0.00,VWS V14.00,2013-03-05 20:28:00,
2013-03-05 15:30:00,42.5,29.2,29.93,SE,125,0.0,1.0,59,0.00,,---,0.00,VWS V14.00,2013-03-05 20:30:00,
2013-03-05 15:31:00,42.5,29.2,29.93,SE,125,0.0,1.0,59,0.00,,---,0.00,VWS V14.00,2013-03-05 20:31:00,
2013-03-05 15:32:00,42.5,29.2,29.93,SE,125,0.0,1.0,59,0.00,,---,0.00,VWS V14.00,2013-03-05 20:32:00,
2013-03-05 15:33:00,42.5,29.2,29.93,ESE,107,0.0,3.0,59,0.00,,---,0.00,VWS V14.00,2013-03-05 20:33:00,
2013-03-05 15:35:00,42.5,28.8,29.93,ESE,104,0.0,3.0,58,0.00,,---,0.00,VWS V14.00,2013-03-05 20:35:00,
2013-03-05 15:37:00,42.5,28.8,29.93,East,101,0.0,3.0,58,0.00,,---,0.00,VWS V14.00,2013-03-05 20:37:00,
2013-03-05 15:38:00,42.5,28.8,29.93,ESE,102,0.0,3.0,58,0.00,,---,0.00,VWS V14.00,2013-03-05 20:38:00,
2013-03-05 15:39:00,42.5,28.8,29.93,East,101,0.0,3.0,58,0.00,,---,0.00,VWS V14.00,2013-03-05 20:39:00,
2013-03-05 15:40:00,42.5,28.8,29.93,East,99,0.0,3.0,58,0.00,,---,0.00,VWS V14.00,2013-03-05 20:40:00,
2013-03-05 15:42:00,42.5,28.8,29.93,East,98,0.0,3.0,58,0.00,,---,0.00,VWS V14.00,2013-03-05 20:42:00,
2013-03-05 15:43:00,42.5,28.8,29.93,East,99,0.0,3.0,58,0.00,,---,0.00,VWS V14.00,2013-03-05 20:43:00,
2013-03-05 15:44:00,42.5,28.8,29.93,East,98,1.0,3.0,58,0.00,,---,0.00,VWS V14.00,2013-03-05 20:44:00,
2013-03-05 15:45:00,41.6,28.8,29.95,East,92,0.0,0.0,60,0.00,,---,0.00,VWS V14.00,2013-03-05 20:45:00,
2013-03-05 15:46:00,42.3,29.0,29.93,NE,53,3.0,3.0,59,0.00,,---,0.00,VWS V14.00,2013-03-05 20:46:00,
2013-03-05 15:47:00,42.3,29.0,29.93,NE,53,0.0,3.0,59,0.00,,---,0.00,VWS V14.00,2013-03-05 20:47:00,
2013-03-05 15:48:00,42.3,29.0,29.93,NE,53,0.0,3.0,59,0.00,,---,0.00,VWS V14.00,2013-03-05 20:48:00,
2013-03-05 15:49:00,42.3,29.0,29.93,East,96,0.0,3.0,59,0.00,,---,0.00,VWS V14.00,2013-03-05 20:49:00,
2013-03-05 15:51:00,42.2,28.9,29.93,East,93,0.0,3.0,59,0.00,,---,0.00,VWS V14.00,2013-03-05 20:51:00,
2013-03-05 15:52:00,42.2,28.9,29.93,East,93,1.0,3.0,59,0.00,,---,0.00,VWS V14.00,2013-03-05 20:52:00,
2013-03-05 15:53:00,42.2,28.9,29.93,East,94,0.0,3.0,59,0.00,,---,0.00,VWS V14.00,2013-03-05 20:53:00,
2013-03-05 15:54:00,42.1,28.8,29.93,East,94,0.0,3.0,59,0.00,,---,0.00,VWS V14.00,2013-03-05 20:54:00,
2013-03-05 15:56:00,42.1,29.2,29.93,East,94,0.0,3.0,60,0.00,,---,0.00,VWS V14.00,2013-03-05 20:56:00,
2013-03-05 15:57:00,42.1,29.2,29.93,East,94,0.0,3.0,60,0.00,,---,0.00,VWS V14.00,2013-03-05 20:57:00,
2013-03-05 15:58:00,42.1,29.2,29.94,East,94,0.0,3.0,60,0.00,,---,0.00,VWS V14.00,2013-03-05 20:58:00,
2013-03-05 15:59:00,42.1,29.2,29.94,East,94,0.0,3.0,60,0.00,,---,0.00,VWS V14.00,2013-03-05 20:59:00,
2013-03-05 16:00:00,41.5,28.7,29.96,East,92,0.0,1.0,60,0.00,,---,0.00,VWS V14.00,2013-03-05 21:00:00,
2013-03-05 16:01:00,42.1,29.2,29.94,East,94,0.0,1.0,60,0.00,,---,0.00,VWS V14.00,2013-03-05 21:01:00,
2013-03-05 16:02:00,42.1,29.2,29.94,East,94,0.0,1.0,60,0.00,,---,0.00,VWS V14.00,2013-03-05 21:02:00,
2013-03-05 16:03:00,42.1,29.2,29.94,East,94,0.0,1.0,60,0.00,,---,0.00,VWS V14.00,2013-03-05 21:03:00,
2013-03-05 16:04:00,42.1,29.2,29.94,East,94,0.0,1.0,60,0.00,,---,0.00,VWS V14.00,2013-03-05 21:04:00,
2013-03-05 16:06:00,42.1,29.2,29.94,East,94,0.0,1.0,60,0.00,,---,0.00,VWS V14.00,2013-03-05 21:06:00,
2013-03-05 16:08:00,42.1,29.2,29.94,East,94,0.0,1.0,60,0.00,,---,0.00,VWS V14.00,2013-03-05 21:08:00,
2013-03-05 16:09:00,42.1,29.2,29.94,East,94,0.0,1.0,60,0.00,,---,0.00,VWS V14.00,2013-03-05 21:09:00,
2013-03-05 16:11:00,42.2,29.3,29.94,East,94,0.0,1.0,60,0.00,,---,0.00,VWS V14.00,2013-03-05 21:11:00,
2013-03-05 16:13:00,42.2,29.3,29.94,East,94,0.0,1.0,60,0.00,,---,0.00,VWS V14.00,2013-03-05 21:13:00,
2013-03-05 16:14:00,42.2,29.3,29.95,East,94,0.0,1.0,60,0.00,,---,0.00,VWS V14.00,2013-03-05 21:14:00,
2013-03-05 16:15:00,41.2,28.8,29.96,East,94,1.0,2.0,61,0.00,,---,0.00,VWS V14.00,2013-03-05 21:15:00,
2013-03-05 16:16:00,42.2,29.3,29.95,East,94,0.0,0.0,60,0.00,,---,0.00,VWS V14.00,2013-03-05 21:16:00,
2013-03-05 16:18:00,42.2,29.3,29.95,East,92,0.0,2.0,60,0.00,,---,0.00,VWS V14.00,2013-03-05 21:18:00,
2013-03-05 16:19:00,42.2,28.9,29.95,East,92,0.0,2.0,59,0.00,,---,0.00,VWS V14.00,2013-03-05 21:19:00,
2013-03-05 16:21:00,42.1,28.8,29.95,East,92,0.0,2.0,59,0.00,,---,0.00,VWS V14.00,2013-03-05 21:21:00,
2013-03-05 16:23:00,42.1,28.8,29.95,East,92,0.0,2.0,59,0.00,,---,0.00,VWS V14.00,2013-03-05 21:23:00,
2013-03-05 16:24:00,42.1,28.8,29.95,East,92,0.0,2.0,59,0.00,,---,0.00,VWS V14.00,2013-03-05 21:24:00,
2013-03-05 16:26:00,41.9,28.6,29.95,East,92,0.0,2.0,59,0.00,,---,0.00,VWS V14.00,2013-03-05 21:26:00,
2013-03-05 16:28:00,41.9,28.6,29.95,East,92,0.0,2.0,59,0.00,,---,0.00,VWS V14.00,2013-03-05 21:28:00,
2013-03-05 16:29:00,41.9,28.6,29.95,East,92,0.0,2.0,59,0.00,,---,0.00,VWS V14.00,2013-03-05 21:29:00,
2013-03-05 16:30:00,40.6,29.8,29.96,East,94,0.0,2.0,65,0.00,,---,0.00,VWS V14.00,2013-03-05 21:30:00,
2013-03-05 16:31:00,41.9,29.0,29.95,East,92,0.0,0.0,60,0.00,,---,0.00,VWS V14.00,2013-03-05 21:31:00,
2013-03-05 16:33:00,41.9,28.6,29.95,East,92,0.0,0.0,59,0.00,,---,0.00,VWS V14.00,2013-03-05 21:33:00,
2013-03-05 16:34:00,41.9,29.0,29.95,East,92,0.0,0.0,60,0.00,,---,0.00,VWS V14.00,2013-03-05 21:34:00,
2013-03-05 16:37:00,41.8,29.0,29.95,East,92,0.0,0.0,60,0.00,,---,0.00,VWS V14.00,2013-03-05 21:37:00,
2013-03-05 16:38:00,41.8,29.0,29.95,East,92,0.0,0.0,60,0.00,,---,0.00,VWS V14.00,2013-03-05 21:38:00,
2013-03-05 16:39:00,41.8,29.0,29.95,East,92,0.0,0.0,60,0.00,,---,0.00,VWS V14.00,2013-03-05 21:39:00,
2013-03-05 16:40:00,41.6,28.8,29.95,East,92,0.0,0.0,60,0.00,,---,0.00,VWS V14.00,2013-03-05 21:40:00,
2013-03-05 16:42:00,41.6,28.8,29.95,East,92,0.0,0.0,60,0.00,,---,0.00,VWS V14.00,2013-03-05 21:42:00,
2013-03-05 16:44:00,41.6,28.8,29.95,East,92,0.0,0.0,60,0.00,,---,0.00,VWS V14.00,2013-03-05 21:44:00,
2013-03-05 16:45:00,41.5,28.7,29.95,East,92,0.0,0.0,60,0.00,,---,0.00,VWS V14.00,2013-03-05 21:45:00,
2013-03-05 16:47:00,41.5,28.7,29.95,East,92,0.0,0.0,60,0.00,,---,0.00,VWS V14.00,2013-03-05 21:47:00,
2013-03-05 16:49:00,41.5,28.7,29.95,East,92,0.0,0.0,60,0.00,,---,0.00,VWS V14.00,2013-03-05 21:49:00,
2013-03-05 16:50:00,41.5,28.7,29.95,East,92,0.0,1.0,60,0.00,,---,0.00,VWS V14.00,2013-03-05 21:50:00,
2013-03-05 16:52:00,41.5,28.7,29.95,East,92,0.0,1.0,60,0.00,,---,0.00,VWS V14.00,2013-03-05 21:52:00,
2013-03-05 16:54:00,41.5,28.7,29.95,East,92,0.0,1.0,60,0.00,,---,0.00,VWS V14.00,2013-03-05 21:54:00,
2013-03-05 16:55:00,41.5,28.7,29.95,East,92,0.0,1.0,60,0.00,,---,0.00,VWS V14.00,2013-03-05 21:55:00,
2013-03-05 16:57:00,41.5,28.7,29.95,East,92,0.0,1.0,60,0.00,,---,0.00,VWS V14.00,2013-03-05 21:57:00,
2013-03-05 16:59:00,41.5,28.7,29.96,East,92,0.0,1.0,60,0.00,,---,0.00,VWS V14.00,2013-03-05 21:59:00,
2013-03-05 17:00:00,41.5,28.7,29.96,East,92,0.0,0.0,60,0.00,,---,0.00,VWS V14.00,2013-03-05 22:00:00,
2013-03-05 17:02:00,41.5,28.7,29.96,East,92,0.0,0.0,60,0.00,,---,0.00,VWS V14.00,2013-03-05 22:02:00,
2013-03-05 17:04:00,41.5,28.7,29.96,East,92,0.0,0.0,60,0.00,,---,0.00,VWS V14.00,2013-03-05 22:04:00,
2013-03-05 17:06:00,41.5,28.7,29.96,East,92,0.0,0.0,60,0.00,,---,0.00,VWS V14.00,2013-03-05 22:06:00,
2013-03-05 17:07:00,41.3,28.5,29.96,East,92,0.0,0.0,60,0.00,,---,0.00,VWS V14.00,2013-03-05 22:07:00,
2013-03-05 17:09:00,41.3,28.5,29.96,East,92,0.0,1.0,60,0.00,,---,0.00,VWS V14.00,2013-03-05 22:09:00,
2013-03-05 17:11:00,41.3,28.5,29.96,East,92,0.0,1.0,60,0.00,,---,0.00,VWS V14.00,2013-03-05 22:11:00,
2013-03-05 17:12:00,41.3,28.9,29.96,East,92,0.0,1.0,61,0.00,,---,0.00,VWS V14.00,2013-03-05 22:12:00,
2013-03-05 17:14:00,41.2,28.8,29.96,East,94,0.0,1.0,61,0.00,,---,0.00,VWS V14.00,2013-03-05 22:14:00,
2013-03-05 17:15:00,41.2,28.8,29.96,East,94,0.0,1.0,61,0.00,,---,0.00,VWS V14.00,2013-03-05 22:15:00,
2013-03-05 17:16:00,41.2,29.2,29.96,East,94,0.0,1.0,62,0.00,,---,0.00,VWS V14.00,2013-03-05 22:16:00,
2013-03-05 17:18:00,41.2,29.2,29.96,East,94,0.0,2.0,62,0.00,,---,0.00,VWS V14.00,2013-03-05 22:18:00,
2013-03-05 17:19:00,41.1,29.1,29.96,East,94,0.0,2.0,62,0.00,,---,0.00,VWS V14.00,2013-03-05 22:19:00,
2013-03-05 17:20:00,41.1,29.5,29.96,East,93,0.0,2.0,63,0.00,,---,0.00,VWS V14.00,2013-03-05 22:20:00,
2013-03-05 17:21:00,40.9,29.3,29.96,East,93,0.0,2.0,63,0.00,,---,0.00,VWS V14.00,2013-03-05 22:21:00,
2013-03-05 17:23:00,40.9,29.3,29.96,East,94,2.0,2.0,63,0.00,,---,0.00,VWS V14.00,2013-03-05 22:23:00,
2013-03-05 17:24:00,40.8,29.6,29.96,East,94,0.0,2.0,64,0.00,,---,0.00,VWS V14.00,2013-03-05 22:24:00,
2013-03-05 17:25:00,40.8,29.6,29.96,East,94,0.0,2.0,64,0.00,,---,0.00,VWS V14.00,2013-03-05 22:25:00,
2013-03-05 17:26:00,40.8,29.6,29.96,East,94,0.0,2.0,64,0.00,,---,0.00,VWS V14.00,2013-03-05 22:26:00,
2013-03-05 17:28:00,40.6,29.8,29.96,East,94,0.0,2.0,65,0.00,,---,0.00,VWS V14.00,2013-03-05 22:28:00,
2013-03-05 17:29:00,40.6,29.8,29.96,East,94,0.0,0.0,65,0.00,,---,0.00,VWS V14.00,2013-03-05 22:29:00,
2013-03-05 17:30:00,40.6,29.8,29.96,East,94,0.0,0.0,65,0.00,,---,0.00,VWS V14.00,2013-03-05 22:30:00,
2013-03-05 17:31:00,40.5,29.7,29.96,East,94,0.0,0.0,65,0.00,,---,0.00,VWS V14.00,2013-03-05 22:31:00,
2013-03-05 17:33:00,40.3,29.5,29.96,East,94,0.0,1.0,65,0.00,,---,0.00,VWS V14.00,2013-03-05 22:33:00,
2013-03-05 17:35:00,40.3,29.5,29.96,East,94,0.0,1.0,65,0.00,,---,0.00,VWS V14.00,2013-03-05 22:35:00,
2013-03-05 17:36:00,40.2,29.4,29.96,East,94,0.0,1.0,65,0.00,,---,0.00,VWS V14.00,2013-03-05 22:36:00,
2013-03-05 17:38:00,40.2,29.4,29.96,East,94,0.0,1.0,65,0.00,,---,0.00,VWS V14.00,2013-03-05 22:38:00,
2013-03-05 17:40:00,40.1,29.7,29.96,East,94,0.0,1.0,66,0.00,,---,0.00,VWS V14.00,2013-03-05 22:40:00,
2013-03-05 17:41:00,39.9,29.5,29.96,East,94,0.0,1.0,66,0.00,,---,0.00,VWS V14.00,2013-03-05 22:41:00,
2013-03-05 17:43:00,39.9,29.5,29.96,East,94,0.0,1.0,66,0.00,,---,0.00,VWS V14.00,2013-03-05 22:43:00,
2013-03-05 17:45:00,39.8,29.4,29.97,East,94,0.0,0.0,66,0.00,,---,0.00,VWS V14.00,2013-03-05 22:45:00,
2013-03-05 17:46:00,39.8,29.8,29.97,East,94,0.0,0.0,67,0.00,,---,0.00,VWS V14.00,2013-03-05 22:46:00,
2013-03-05 17:48:00,39.6,29.6,29.97,East,94,0.0,0.0,67,0.00,,---,0.00,VWS V14.00,2013-03-05 22:48:00,
2013-03-05 17:50:00,39.5,29.5,29.97,East,94,0.0,0.0,67,0.00,,---,0.00,VWS V14.00,2013-03-05 22:50:00,
2013-03-05 17:51:00,39.5,29.5,29.97,East,94,0.0,0.0,67,0.00,,---,0.00,VWS V14.00,2013-03-05 22:51:00,
2013-03-05 17:52:00,39.5,29.5,29.97,East,94,0.0,0.0,67,0.00,,---,0.00,VWS V14.00,2013-03-05 22:52:00,
2013-03-05 17:53:00,39.3,29.3,29.97,East,94,0.0,0.0,67,0.00,,---,0.00,VWS V14.00,2013-03-05 22:53:00,
2013-03-05 17:55:00,39.3,29.3,29.97,East,94,0.0,0.0,67,0.00,,---,0.00,VWS V14.00,2013-03-05 22:55:00,
2013-03-05 17:56:00,39.2,29.5,29.97,East,94,0.0,0.0,68,0.00,,---,0.00,VWS V14.00,2013-03-05 22:56:00,
2013-03-05 17:57:00,39.2,29.5,29.97,East,94,0.0,0.0,68,0.00,,---,0.00,VWS V14.00,2013-03-05 22:57:00,
2013-03-05 17:58:00,39.1,29.5,29.97,East,94,0.0,0.0,68,0.00,,---,0.00,VWS V14.00,2013-03-05 22:58:00,
2013-03-05 18:00:00,38.9,29.2,29.97,East,94,0.0,0.0,68,0.00,,---,0.00,VWS V14.00,2013-03-05 23:00:00,
2013-03-05 18:01:00,38.8,29.2,29.97,East,94,0.0,0.0,68,0.00,,---,0.00,VWS V14.00,2013-03-05 23:01:00,
2013-03-05 18:02:00,38.8,29.2,29.97,East,94,0.0,0.0,68,0.00,,---,0.00,VWS V14.00,2013-03-05 23:02:00,
2013-03-05 18:04:00,38.6,29.0,29.97,East,94,0.0,0.0,68,0.00,,---,0.00,VWS V14.00,2013-03-05 23:04:00,
2013-03-05 18:05:00,38.3,29.0,29.97,East,94,0.0,0.0,69,0.00,,---,0.00,VWS V14.00,2013-03-05 23:05:00,
2013-03-05 18:06:00,38.3,29.0,29.97,East,94,0.0,0.0,69,0.00,,---,0.00,VWS V14.00,2013-03-05 23:06:00,
2013-03-05 18:07:00,38.2,28.9,29.97,East,94,0.0,0.0,69,0.00,,---,0.00,VWS V14.00,2013-03-05 23:07:00,
2013-03-05 18:09:00,38.0,28.8,29.97,East,94,1.0,1.0,69,0.00,,---,0.00,VWS V14.00,2013-03-05 23:09:00,
2013-03-05 18:10:00,37.9,29.0,29.97,East,94,0.0,1.0,70,0.00,,---,0.00,VWS V14.00,2013-03-05 23:10:00,
2013-03-05 18:11:00,37.9,29.0,29.97,East,94,0.0,1.0,70,0.00,,---,0.00,VWS V14.00,2013-03-05 23:11:00,
2013-03-05 18:12:00,37.9,29.4,29.97,East,94,0.0,1.0,71,0.00,,---,0.00,VWS V14.00,2013-03-05 23:12:00,
2013-03-05 18:14:00,37.8,29.3,29.97,East,94,0.0,1.0,71,0.00,,---,0.00,VWS V14.00,2013-03-05 23:14:00,
2013-03-05 18:15:00,37.8,29.3,29.97,East,94,0.0,0.0,71,0.00,,---,0.00,VWS V14.00,2013-03-05 23:15:00,
2013-03-05 18:16:00,37.8,29.3,29.97,East,94,0.0,0.0,71,0.00,,---,0.00,VWS V14.00,2013-03-05 23:16:00,
2013-03-05 18:17:00,37.6,29.1,29.97,East,94,0.0,0.0,71,0.00,,---,0.00,VWS V14.00,2013-03-05 23:17:00,
2013-03-05 18:19:00,37.6,29.4,29.97,East,94,0.0,1.0,72,0.00,,---,0.00,VWS V14.00,2013-03-05 23:19:00,
2013-03-05 18:21:00,37.6,29.4,29.97,East,94,0.0,1.0,72,0.00,,---,0.00,VWS V14.00,2013-03-05 23:21:00,
2013-03-05 18:22:00,37.5,29.3,29.97,East,94,0.0,1.0,72,0.00,,---,0.00,VWS V14.00,2013-03-05 23:22:00,
2013-03-05 18:24:00,37.3,29.1,29.97,East,94,0.0,1.0,72,0.00,,---,0.00,VWS V14.00,2013-03-05 23:24:00,
2013-03-05 18:26:00,37.3,29.1,29.97,East,94,0.0,1.0,72,0.00,,---,0.00,VWS V14.00,2013-03-05 23:26:00,
2013-03-05 18:27:00,37.3,29.1,29.97,East,94,0.0,1.0,72,0.00,,---,0.00,VWS V14.00,2013-03-05 23:27:00,
2013-03-05 18:29:00,37.2,29.4,29.98,East,94,0.0,0.0,73,0.00,,---,0.00,VWS V14.00,2013-03-05 23:29:00,
2013-03-05 18:30:00,34.1,28.0,29.99,East,94,0.0,0.0,78,0.00,,---,0.00,VWS V14.00,2013-03-05 23:30:00,
2013-03-05 18:31:00,37.2,29.4,29.98,East,94,0.0,0.0,73,0.00,,---,0.00,VWS V14.00,2013-03-05 23:31:00,
2013-03-05 18:32:00,37.0,29.2,29.98,East,94,0.0,1.0,73,0.00,,---,0.00,VWS V14.00,2013-03-05 23:32:00,
2013-03-05 18:34:00,36.9,29.1,29.98,East,94,0.0,1.0,73,0.00,,---,0.00,VWS V14.00,2013-03-05 23:34:00,
2013-03-05 18:36:00,36.9,29.4,29.98,East,94,0.0,1.0,74,0.00,,---,0.00,VWS V14.00,2013-03-05 23:36:00,
2013-03-05 18:37:00,36.9,29.4,29.98,East,94,0.0,1.0,74,0.00,,---,0.00,VWS V14.00,2013-03-05 23:37:00,
2013-03-05 18:39:00,36.8,29.3,29.98,East,94,0.0,1.0,74,0.00,,---,0.00,VWS V14.00,2013-03-05 23:39:00,
2013-03-05 18:41:00,36.8,29.3,29.98,East,94,0.0,1.0,74,0.00,,---,0.00,VWS V14.00,2013-03-05 23:41:00,
2013-03-05 18:42:00,36.8,29.3,29.98,East,94,0.0,1.0,74,0.00,,---,0.00,VWS V14.00,2013-03-05 23:42:00,
2013-03-05 18:44:00,36.6,29.1,29.98,East,94,0.0,0.0,74,0.00,,---,0.00,VWS V14.00,2013-03-05 23:44:00,
2013-03-05 18:45:00,33.5,28.0,30.00,East,94,0.0,0.0,80,0.00,,---,0.00,VWS V14.00,2013-03-05 23:45:00,
2013-03-05 18:46:00,36.5,29.0,29.98,East,94,0.0,0.0,74,0.00,,---,0.00,VWS V14.00,2013-03-05 23:46:00,
2013-03-05 18:47:00,36.5,29.0,29.98,East,94,0.0,0.0,74,0.00,,---,0.00,VWS V14.00,2013-03-05 23:47:00,
2013-03-05 18:50:00,36.3,28.8,29.98,East,94,0.0,0.0,74,0.00,,---,0.00,VWS V14.00,2013-03-05 23:50:00,
2013-03-05 18:51:00,36.2,28.7,29.98,East,94,0.0,0.0,74,0.00,,---,0.00,VWS V14.00,2013-03-05 23:51:00,
2013-03-05 18:52:00,36.2,28.7,29.98,East,94,0.0,0.0,74,0.00,,---,0.00,VWS V14.00,2013-03-05 23:52:00,
2013-03-05 18:55:00,36.0,28.5,29.98,East,94,0.0,0.0,74,0.00,,---,0.00,VWS V14.00,2013-03-05 23:55:00,
2013-03-05 18:56:00,35.9,28.8,29.98,East,94,0.0,0.0,75,0.00,,---,0.00,VWS V14.00,2013-03-05 23:56:00,
2013-03-05 18:57:00,35.9,28.8,29.98,East,94,0.0,0.0,75,0.00,,---,0.00,VWS V14.00,2013-03-05 23:57:00,
2013-03-05 19:00:00,35.8,28.7,29.98,East,94,0.0,0.0,75,0.00,,---,0.00,VWS V14.00,2013-03-06 00:00:00,
2013-03-05 19:01:00,35.6,28.8,29.98,East,94,0.0,0.0,76,0.00,,---,0.00,VWS V14.00,2013-03-06 00:01:00,
2013-03-05 19:02:00,35.6,28.8,29.98,East,94,0.0,0.0,76,0.00,,---,0.00,VWS V14.00,2013-03-06 00:02:00,
2013-03-05 19:05:00,35.5,28.7,29.98,East,94,0.0,0.0,76,0.00,,---,0.00,VWS V14.00,2013-03-06 00:05:00,
2013-03-05 19:07:00,35.3,28.5,29.98,East,94,0.0,0.0,76,0.00,,---,0.00,VWS V14.00,2013-03-06 00:07:00,
2013-03-05 19:10:00,35.2,28.7,29.98,East,94,0.0,0.0,77,0.00,,---,0.00,VWS V14.00,2013-03-06 00:10:00,
2013-03-05 19:12:00,35.2,28.7,29.98,East,94,0.0,0.0,77,0.00,,---,0.00,VWS V14.00,2013-03-06 00:12:00,
2013-03-05 19:13:00,35.0,28.5,29.98,East,94,0.0,0.0,77,0.00,,---,0.00,VWS V14.00,2013-03-06 00:13:00,
2013-03-05 19:15:00,34.9,28.4,29.99,East,94,0.0,0.0,77,0.00,,---,0.00,VWS V14.00,2013-03-06 00:15:00,
2013-03-05 19:17:00,34.9,28.4,29.99,East,94,0.0,0.0,77,0.00,,---,0.00,VWS V14.00,2013-03-06 00:17:00,
2013-03-05 19:18:00,34.7,28.2,29.99,East,94,0.0,0.0,77,0.00,,---,0.00,VWS V14.00,2013-03-06 00:18:00,
2013-03-05 19:20:00,34.7,28.2,29.99,East,94,0.0,0.0,77,0.00,,---,0.00,VWS V14.00,2013-03-06 00:20:00,
2013-03-05 19:22:00,34.6,28.5,29.99,East,94,0.0,0.0,78,0.00,,---,0.00,VWS V14.00,2013-03-06 00:22:00,
2013-03-05 19:23:00,34.6,28.5,29.99,East,94,0.0,0.0,78,0.00,,---,0.00,VWS V14.00,2013-03-06 00:23:00,
2013-03-05 19:25:00,34.4,28.3,29.99,East,94,0.0,0.0,78,0.00,,---,0.00,VWS V14.00,2013-03-06 00:25:00,
2013-03-05 19:28:00,34.3,28.2,29.99,East,94,0.0,0.0,78,0.00,,---,0.00,VWS V14.00,2013-03-06 00:28:00,
2013-03-05 19:30:00,34.1,28.3,29.99,East,94,0.0,0.0,79,0.00,,---,0.00,VWS V14.00,2013-03-06 00:30:00,
2013-03-05 19:33:00,34.0,28.2,29.99,East,94,0.0,0.0,79,0.00,,---,0.00,VWS V14.00,2013-03-06 00:33:00,
2013-03-05 19:35:00,33.8,28.0,29.99,East,94,0.0,0.0,79,0.00,,---,0.00,VWS V14.00,2013-03-06 00:35:00,
2013-03-05 19:38:00,33.8,28.0,29.99,East,94,0.0,0.0,79,0.00,,---,0.00,VWS V14.00,2013-03-06 00:38:00,
2013-03-05 19:40:00,33.7,27.9,29.99,East,94,0.0,0.0,79,0.00,,---,0.00,VWS V14.00,2013-03-06 00:40:00,
2013-03-05 19:43:00,33.5,28.0,29.99,East,94,0.0,0.0,80,0.00,,---,0.00,VWS V14.00,2013-03-06 00:43:00,
2013-03-05 19:45:00,31.2,26.9,29.99,East,94,0.0,0.0,84,0.00,,---,0.00,VWS V14.00,2013-03-06 00:45:00,
2013-03-05 19:46:00,33.4,27.9,30.00,East,94,0.0,0.0,80,0.00,,---,0.00,VWS V14.00,2013-03-06 00:46:00,
2013-03-05 19:48:00,33.4,27.9,30.00,East,94,0.0,0.0,80,0.00,,---,0.00,VWS V14.00,2013-03-06 00:48:00,
2013-03-05 19:51:00,33.2,27.7,30.00,East,94,0.0,0.0,80,0.00,,---,0.00,VWS V14.00,2013-03-06 00:51:00,
2013-03-05 19:53:00,33.1,27.6,30.00,East,94,0.0,0.0,80,0.00,,---,0.00,VWS V14.00,2013-03-06 00:53:00,
2013-03-05 19:56:00,33.1,27.6,30.00,East,94,0.0,0.0,80,0.00,,---,0.00,VWS V14.00,2013-03-06 00:56:00,
2013-03-05 19:58:00,32.9,27.4,30.00,East,94,0.0,0.0,80,0.00,,---,0.00,VWS V14.00,2013-03-06 00:58:00,
2013-03-05 20:00:00,31.5,27.5,29.99,East,94,0.0,0.0,85,0.00,,---,0.00,VWS V14.00,2013-03-06 01:00:00,
2013-03-05 20:01:00,32.8,27.3,30.00,East,94,0.0,0.0,80,0.00,,---,0.00,VWS V14.00,2013-03-06 01:01:00,
2013-03-05 20:03:00,32.7,27.2,30.00,East,94,0.0,0.0,80,0.00,,---,0.00,VWS V14.00,2013-03-06 01:03:00,
2013-03-05 20:04:00,32.7,27.2,30.00,East,94,0.0,0.0,80,0.00,,---,0.00,VWS V14.00,2013-03-06 01:04:00,
2013-03-05 20:06:00,32.5,27.3,30.00,East,94,0.0,0.0,81,0.00,,---,0.00,VWS V14.00,2013-03-06 01:06:00,
2013-03-05 20:08:00,32.4,27.2,30.00,East,94,0.0,0.0,81,0.00,,---,0.00,VWS V14.00,2013-03-06 01:08:00,
2013-03-05 20:09:00,32.4,27.2,30.00,East,94,0.0,0.0,81,0.00,,---,0.00,VWS V14.00,2013-03-06 01:09:00,
2013-03-05 20:12:00,32.2,27.0,30.00,East,94,0.0,0.0,81,0.00,,---,0.00,VWS V14.00,2013-03-06 01:12:00,
2013-03-05 20:13:00,32.1,26.9,29.99,East,94,0.0,0.0,81,0.00,,---,0.00,VWS V14.00,2013-03-06 01:13:00,
2013-03-05 20:14:00,32.1,26.9,29.99,East,94,0.0,0.0,81,0.00,,---,0.00,VWS V14.00,2013-03-06 01:14:00,
2013-03-05 20:15:00,31.8,27.8,29.98,East,94,0.0,0.0,85,0.00,,---,0.00,VWS V14.00,2013-03-06 01:15:00,
2013-03-05 20:17:00,31.9,27.0,29.99,East,94,0.0,0.0,82,0.00,,---,0.00,VWS V14.00,2013-03-06 01:17:00,
2013-03-05 20:18:00,31.8,26.9,29.99,East,94,0.0,0.0,82,0.00,,---,0.00,VWS V14.00,2013-03-06 01:18:00,
2013-03-05 20:19:00,31.8,26.9,29.99,East,94,0.0,0.0,82,0.00,,---,0.00,VWS V14.00,2013-03-06 01:19:00,
2013-03-05 20:22:00,31.6,26.8,29.99,East,94,0.0,0.0,82,0.00,,---,0.00,VWS V14.00,2013-03-06 01:22:00,
2013-03-05 20:23:00,31.6,26.8,29.99,East,94,0.0,0.0,82,0.00,,---,0.00,VWS V14.00,2013-03-06 01:23:00,
2013-03-05 20:24:00,31.6,26.8,29.99,East,94,0.0,0.0,82,0.00,,---,0.00,VWS V14.00,2013-03-06 01:24:00,
2013-03-05 20:27:00,31.5,26.9,29.99,East,94,0.0,0.0,83,0.00,,---,0.00,VWS V14.00,2013-03-06 01:27:00,
2013-03-05 20:28:00,31.5,26.9,29.99,East,94,0.0,0.0,83,0.00,,---,0.00,VWS V14.00,2013-03-06 01:28:00,
2013-03-05 20:29:00,31.5,26.9,29.99,East,94,0.0,0.0,83,0.00,,---,0.00,VWS V14.00,2013-03-06 01:29:00,
2013-03-05 20:30:00,32.1,28.1,29.99,East,94,0.0,0.0,85,0.00,,---,0.00,VWS V14.00,2013-03-06 01:30:00,
2013-03-05 20:32:00,31.3,26.8,29.99,East,94,0.0,0.0,83,0.00,,---,0.00,VWS V14.00,2013-03-06 01:32:00,
2013-03-05 20:33:00,31.2,26.6,29.99,East,94,0.0,0.0,83,0.00,,---,0.00,VWS V14.00,2013-03-06 01:33:00,
2013-03-05 20:34:00,31.2,26.6,29.99,East,94,0.0,0.0,83,0.00,,---,0.00,VWS V14.00,2013-03-06 01:34:00,
2013-03-05 20:37:00,31.2,26.6,29.99,East,94,0.0,0.0,83,0.00,,---,0.00,VWS V14.00,2013-03-06 01:37:00,
2013-03-05 20:38:00,31.2,26.6,29.99,East,94,0.0,0.0,83,0.00,,---,0.00,VWS V14.00,2013-03-06 01:38:00,
2013-03-05 20:39:00,31.2,26.6,29.99,East,94,0.0,0.0,83,0.00,,---,0.00,VWS V14.00,2013-03-06 01:39:00,
2013-03-05 20:42:00,31.2,26.6,29.99,East,94,0.0,0.0,83,0.00,,---,0.00,VWS V14.00,2013-03-06 01:42:00,
2013-03-05 20:44:00,31.2,26.6,29.99,East,94,0.0,0.0,83,0.00,,---,0.00,VWS V14.00,2013-03-06 01:44:00,
2013-03-05 20:45:00,32.5,28.5,29.98,East,94,0.0,0.0,85,0.00,,---,0.00,VWS V14.00,2013-03-06 01:45:00,
2013-03-05 20:47:00,31.2,26.9,29.99,East,94,0.0,0.0,84,0.00,,---,0.00,VWS V14.00,2013-03-06 01:47:00,
2013-03-05 20:49:00,31.2,26.9,29.99,East,94,0.0,0.0,84,0.00,,---,0.00,VWS V14.00,2013-03-06 01:49:00,
2013-03-05 20:52:00,31.3,27.0,29.99,East,94,0.0,0.0,84,0.00,,---,0.00,VWS V14.00,2013-03-06 01:52:00,
2013-03-05 20:54:00,31.3,27.0,29.99,East,94,0.0,0.0,84,0.00,,---,0.00,VWS V14.00,2013-03-06 01:54:00,
2013-03-05 20:58:00,31.5,27.2,29.99,East,94,0.0,0.0,84,0.00,,---,0.00,VWS V14.00,2013-03-06 01:58:00,
2013-03-05 20:59:00,31.5,27.5,29.99,East,94,0.0,0.0,85,0.00,,---,0.00,VWS V14.00,2013-03-06 01:59:00,
2013-03-05 21:00:00,31.5,27.5,29.99,East,94,0.0,0.0,85,0.00,,---,0.00,VWS V14.00,2013-03-06 02:00:00,
2013-03-05 21:03:00,31.6,27.6,29.99,East,94,0.0,0.0,85,0.00,,---,0.00,VWS V14.00,2013-03-06 02:03:00,
2013-03-05 21:04:00,31.6,27.6,29.99,East,94,0.0,0.0,85,0.00,,---,0.00,VWS V14.00,2013-03-06 02:04:00,
2013-03-05 21:05:00,31.6,27.6,29.99,East,94,0.0,0.0,85,0.00,,---,0.00,VWS V14.00,2013-03-06 02:05:00,
2013-03-05 21:08:00,31.6,27.6,29.99,East,94,0.0,0.0,85,0.00,,---,0.00,VWS V14.00,2013-03-06 02:08:00,
2013-03-05 21:09:00,31.8,27.8,29.99,East,94,0.0,0.0,85,0.00,,---,0.00,VWS V14.00,2013-03-06 02:09:00,
2013-03-05 21:10:00,31.8,27.8,29.99,East,94,0.0,0.0,85,0.00,,---,0.00,VWS V14.00,2013-03-06 02:10:00,
2013-03-05 21:13:00,31.8,27.8,29.99,East,94,0.0,0.0,85,0.00,,---,0.00,VWS V14.00,2013-03-06 02:13:00,
2013-03-05 21:14:00,31.8,27.8,29.98,East,94,0.0,0.0,85,0.00,,---,0.00,VWS V14.00,2013-03-06 02:14:00,
2013-03-05 21:15:00,31.8,27.8,29.98,East,94,0.0,0.0,85,0.00,,---,0.00,VWS V14.00,2013-03-06 02:15:00,
2013-03-05 21:18:00,31.8,27.8,29.98,East,94,0.0,0.0,85,0.00,,---,0.00,VWS V14.00,2013-03-06 02:18:00,
2013-03-05 21:20:00,31.8,27.8,29.98,East,94,0.0,0.0,85,0.00,,---,0.00,VWS V14.00,2013-03-06 02:20:00,
2013-03-05 21:23:00,31.9,27.9,29.98,East,94,0.0,0.0,85,0.00,,---,0.00,VWS V14.00,2013-03-06 02:23:00,
2013-03-05 21:24:00,31.9,27.9,29.98,East,94,0.0,0.0,85,0.00,,---,0.00,VWS V14.00,2013-03-06 02:24:00,
2013-03-05 21:25:00,31.9,27.9,29.98,East,94,0.0,0.0,85,0.00,,---,0.00,VWS V14.00,2013-03-06 02:25:00,
2013-03-05 21:26:00,31.9,27.9,29.98,East,94,0.0,0.0,85,0.00,,---,0.00,VWS V14.00,2013-03-06 02:26:00,
2013-03-05 21:28:00,31.9,27.9,29.98,East,94,0.0,0.0,85,0.00,,---,0.00,VWS V14.00,2013-03-06 02:28:00,
2013-03-05 21:30:00,32.1,28.1,29.99,East,94,0.0,0.0,85,0.00,,---,0.00,VWS V14.00,2013-03-06 02:30:00,
2013-03-05 21:31:00,32.1,28.1,29.99,East,94,0.0,0.0,85,0.00,,---,0.00,VWS V14.00,2013-03-06 02:31:00,
2013-03-05 21:33:00,32.1,28.1,29.99,East,94,0.0,0.0,85,0.00,,---,0.00,VWS V14.00,2013-03-06 02:33:00,
2013-03-05 21:35:00,32.2,28.2,29.99,East,94,0.0,0.0,85,0.00,,---,0.00,VWS V14.00,2013-03-06 02:35:00,
2013-03-05 21:36:00,32.2,28.2,29.99,East,94,0.0,0.0,85,0.00,,---,0.00,VWS V14.00,2013-03-06 02:36:00,
2013-03-05 21:38:00,32.2,28.2,29.99,East,94,0.0,0.0,85,0.00,,---,0.00,VWS V14.00,2013-03-06 02:38:00,
2013-03-05 21:40:00,32.4,28.4,29.99,East,94,0.0,0.0,85,0.00,,---,0.00,VWS V14.00,2013-03-06 02:40:00,
2013-03-05 21:41:00,32.4,28.4,29.99,East,94,0.0,0.0,85,0.00,,---,0.00,VWS V14.00,2013-03-06 02:41:00,
2013-03-05 21:43:00,32.4,28.4,29.98,East,94,0.0,0.0,85,0.00,,---,0.00,VWS V14.00,2013-03-06 02:43:00,
2013-03-05 21:45:00,32.5,28.5,29.98,East,94,0.0,0.0,85,0.00,,---,0.00,VWS V14.00,2013-03-06 02:45:00,
2013-03-05 21:46:00,32.5,28.5,29.98,East,94,0.0,0.0,85,0.00,,---,0.00,VWS V14.00,2013-03-06 02:46:00,
2013-03-05 21:48:00,32.5,28.5,29.98,East,94,0.0,1.0,85,0.00,,---,0.00,VWS V14.00,2013-03-06 02:48:00,
2013-03-05 21:50:00,32.5,28.5,29.98,East,94,0.0,1.0,85,0.00,,---,0.00,VWS V14.00,2013-03-06 02:50:00,
2013-03-05 21:51:00,32.5,28.5,29.98,East,94,0.0,1.0,85,0.00,,---,0.00,VWS V14.00,2013-03-06 02:51:00,
2013-03-05 21:54:00,32.5,28.5,29.98,East,94,0.0,1.0,85,0.00,,---,0.00,VWS V14.00,2013-03-06 02:54:00,
2013-03-05 21:55:00,32.5,28.5,29.98,East,94,0.0,1.0,85,0.00,,---,0.00,VWS V14.00,2013-03-06 02:55:00,
2013-03-05 21:56:00,32.5,28.5,29.98,East,94,0.0,1.0,85,0.00,,---,0.00,VWS V14.00,2013-03-06 02:56:00,
2013-03-05 21:59:00,32.4,28.4,29.99,East,94,0.0,1.0,85,0.00,,---,0.00,VWS V14.00,2013-03-06 02:59:00,
2013-03-05 22:00:00,32.4,28.4,29.99,East,94,0.0,0.0,85,0.00,,---,0.00,VWS V14.00,2013-03-06 03:00:00,
2013-03-05 22:01:00,32.4,28.4,29.99,East,94,0.0,0.0,85,0.00,,---,0.00,VWS V14.00,2013-03-06 03:01:00,
2013-03-05 22:04:00,32.4,28.4,29.99,East,94,0.0,0.0,85,0.00,,---,0.00,VWS V14.00,2013-03-06 03:04:00,
2013-03-05 22:05:00,32.4,28.4,29.99,East,94,0.0,0.0,85,0.00,,---,0.00,VWS V14.00,2013-03-06 03:05:00,
2013-03-05 22:06:00,32.4,28.4,29.99,East,94,0.0,0.0,85,0.00,,---,0.00,VWS V14.00,2013-03-06 03:06:00,
2013-03-05 22:09:00,32.4,28.4,29.99,East,94,0.0,0.0,85,0.00,,---,0.00,VWS V14.00,2013-03-06 03:09:00,
2013-03-05 22:10:00,32.4,28.4,29.99,East,94,0.0,0.0,85,0.00,,---,0.00,VWS V14.00,2013-03-06 03:10:00,
2013-03-05 22:11:00,32.4,28.4,29.99,East,94,0.0,0.0,85,0.00,,---,0.00,VWS V14.00,2013-03-06 03:11:00,
2013-03-05 22:12:00,32.4,28.4,29.99,East,94,0.0,0.0,85,0.00,,---,0.00,VWS V14.00,2013-03-06 03:12:00,
2013-03-05 22:14:00,32.4,28.4,29.99,East,94,0.0,0.0,85,0.00,,---,0.00,VWS V14.00,2013-03-06 03:14:00,
2013-03-05 22:15:00,32.4,28.4,29.99,East,94,0.0,0.0,85,0.00,,---,0.00,VWS V14.00,2013-03-06 03:15:00,
2013-03-05 22:17:00,32.4,28.4,29.99,East,94,0.0,0.0,85,0.00,,---,0.00,VWS V14.00,2013-03-06 03:17:00,
2013-03-05 22:19:00,32.4,28.4,29.99,East,94,0.0,0.0,85,0.00,,---,0.00,VWS V14.00,2013-03-06 03:19:00,
2013-03-05 22:20:00,32.2,28.2,29.99,East,94,0.0,0.0,85,0.00,,---,0.00,VWS V14.00,2013-03-06 03:20:00,
2013-03-05 22:22:00,32.2,28.2,29.99,East,94,0.0,0.0,85,0.00,,---,0.00,VWS V14.00,2013-03-06 03:22:00,
2013-03-05 22:24:00,32.4,28.4,29.99,East,94,0.0,0.0,85,0.00,,---,0.00,VWS V14.00,2013-03-06 03:24:00,
2013-03-05 22:25:00,32.4,28.4,29.99,East,94,0.0,0.0,85,0.00,,---,0.00,VWS V14.00,2013-03-06 03:25:00,
2013-03-05 22:27:00,32.4,28.4,29.99,East,94,0.0,0.0,85,0.00,,---,0.00,VWS V14.00,2013-03-06 03:27:00,
2013-03-05 22:29:00,32.4,28.4,29.99,East,94,0.0,0.0,85,0.00,,---,0.00,VWS V14.00,2013-03-06 03:29:00,
2013-03-05 22:30:00,32.4,28.4,29.99,East,94,0.0,0.0,85,0.00,,---,0.00,VWS V14.00,2013-03-06 03:30:00,
2013-03-05 22:32:00,32.4,28.4,29.99,East,94,0.0,0.0,85,0.00,,---,0.00,VWS V14.00,2013-03-06 03:32:00,
2013-03-05 22:34:00,32.4,28.4,29.99,East,94,0.0,0.0,85,0.00,,---,0.00,VWS V14.00,2013-03-06 03:34:00,
2013-03-05 22:35:00,32.4,28.4,29.99,East,94,0.0,0.0,85,0.00,,---,0.00,VWS V14.00,2013-03-06 03:35:00,
2013-03-05 22:37:00,32.4,28.4,29.99,East,94,0.0,0.0,85,0.00,,---,0.00,VWS V14.00,2013-03-06 03:37:00,
2013-03-05 22:39:00,32.5,28.5,29.99,East,94,0.0,0.0,85,0.00,,---,0.00,VWS V14.00,2013-03-06 03:39:00,
2013-03-05 22:40:00,32.5,28.5,29.99,East,94,0.0,0.0,85,0.00,,---,0.00,VWS V14.00,2013-03-06 03:40:00,
2013-03-05 22:42:00,32.7,28.7,29.99,East,94,0.0,0.0,85,0.00,,---,0.00,VWS V14.00,2013-03-06 03:42:00,
2013-03-05 22:44:00,32.7,28.7,30.00,East,94,0.0,0.0,85,0.00,,---,0.00,VWS V14.00,2013-03-06 03:44:00,
2013-03-05 22:45:00,32.7,28.7,30.00,East,94,0.0,0.0,85,0.00,,---,0.00,VWS V14.00,2013-03-06 03:45:00,
2013-03-05 22:47:00,32.7,28.7,30.00,East,94,0.0,0.0,85,0.00,,---,0.00,VWS V14.00,2013-03-06 03:47:00,
2013-03-05 22:50:00,32.7,28.7,30.00,East,94,0.0,0.0,85,0.00,,---,0.00,VWS V14.00,2013-03-06 03:50:00,
2013-03-05 22:52:00,32.8,28.8,30.00,East,94,0.0,0.0,85,0.00,,---,0.00,VWS V14.00,2013-03-06 03:52:00,
2013-03-05 22:55:00,32.8,28.8,30.00,East,94,0.0,0.0,85,0.00,,---,0.00,VWS V14.00,2013-03-06 03:55:00,
2013-03-05 22:58:00,32.9,29.2,30.00,East,94,0.0,0.0,86,0.00,,---,0.00,VWS V14.00,2013-03-06 03:58:00,
2013-03-05 23:00:00,32.9,28.9,30.01,East,94,0.0,0.0,85,0.00,,---,0.00,VWS V14.00,2013-03-06 04:00:00,
2013-03-05 23:01:00,33.1,29.4,30.01,East,94,0.0,0.0,86,0.00,,---,0.00,VWS V14.00,2013-03-06 04:01:00,
2013-03-05 23:03:00,33.1,29.4,30.01,East,94,0.0,0.0,86,0.00,,---,0.00,VWS V14.00,2013-03-06 04:03:00,
2013-03-05 23:05:00,33.2,29.5,30.01,East,94,0.0,0.0,86,0.00,,---,0.00,VWS V14.00,2013-03-06 04:05:00,
2013-03-05 23:06:00,33.2,29.5,30.01,East,94,0.0,0.0,86,0.00,,---,0.00,VWS V14.00,2013-03-06 04:06:00,
2013-03-05 23:08:00,33.4,29.7,30.01,East,94,0.0,0.0,86,0.00,,---,0.00,VWS V14.00,2013-03-06 04:08:00,
2013-03-05 23:10:00,33.4,29.7,30.01,East,94,0.0,0.0,86,0.00,,---,0.00,VWS V14.00,2013-03-06 04:10:00,
2013-03-05 23:11:00,33.4,29.7,30.01,East,94,0.0,0.0,86,0.00,,---,0.00,VWS V14.00,2013-03-06 04:11:00,
2013-03-05 23:13:00,33.5,29.5,30.01,East,94,0.0,0.0,85,0.00,,---,0.00,VWS V14.00,2013-03-06 04:13:00,
2013-03-05 23:15:00,33.5,29.8,30.01,East,94,0.0,0.0,86,0.00,,---,0.00,VWS V14.00,2013-03-06 04:15:00,
2013-03-05 23:16:00,33.5,29.8,30.01,East,94,0.0,0.0,86,0.00,,---,0.00,VWS V14.00,2013-03-06 04:16:00,
2013-03-05 23:18:00,33.7,29.7,30.01,East,94,0.0,0.0,85,0.00,,---,0.00,VWS V14.00,2013-03-06 04:18:00,
2013-03-05 23:20:00,33.8,30.1,30.01,East,94,0.0,0.0,86,0.00,,---,0.00,VWS V14.00,2013-03-06 04:20:00,
2013-03-05 23:21:00,33.8,30.1,30.01,East,94,0.0,0.0,86,0.00,,---,0.00,VWS V14.00,2013-03-06 04:21:00,
2013-03-05 23:23:00,33.8,30.1,30.01,East,94,0.0,0.0,86,0.00,,---,0.00,VWS V14.00,2013-03-06 04:23:00,
2013-03-05 23:25:00,34.0,30.3,30.01,East,94,0.0,0.0,86,0.00,,---,0.00,VWS V14.00,2013-03-06 04:25:00,
2013-03-05 23:26:00,34.0,30.3,30.01,East,94,0.0,0.0,86,0.00,,---,0.00,VWS V14.00,2013-03-06 04:26:00,
2013-03-05 23:28:00,34.0,30.3,30.01,East,94,0.0,0.0,86,0.00,,---,0.00,VWS V14.00,2013-03-06 04:28:00,
2013-03-05 23:30:00,34.6,30.9,30.00,East,94,0.0,0.0,86,0.00,,---,0.00,VWS V14.00,2013-03-06 04:30:00,
2013-03-05 23:31:00,34.1,30.4,30.01,East,94,0.0,0.0,86,0.00,,---,0.00,VWS V14.00,2013-03-06 04:31:00,
2013-03-05 23:33:00,34.1,30.4,30.01,East,94,0.0,0.0,86,0.00,,---,0.00,VWS V14.00,2013-03-06 04:33:00,
2013-03-05 23:34:00,34.1,30.4,30.01,East,94,0.0,0.0,86,0.00,,---,0.00,VWS V14.00,2013-03-06 04:34:00,
2013-03-05 23:36:00,34.3,30.3,30.01,East,94,0.0,0.0,85,0.00,,---,0.00,VWS V14.00,2013-03-06 04:36:00,
2013-03-05 23:38:00,34.3,30.6,30.01,East,94,0.0,0.0,86,0.00,,---,0.00,VWS V14.00,2013-03-06 04:38:00,
2013-03-05 23:39:00,34.3,30.6,30.01,East,94,0.0,0.0,86,0.00,,---,0.00,VWS V14.00,2013-03-06 04:39:00,
2013-03-05 23:41:00,34.3,30.6,30.01,East,94,0.0,0.0,86,0.00,,---,0.00,VWS V14.00,2013-03-06 04:41:00,
2013-03-05 23:43:00,34.3,30.6,30.01,East,94,0.0,0.0,86,0.00,,---,0.00,VWS V14.00,2013-03-06 04:43:00,
2013-03-05 23:44:00,34.3,30.6,30.01,East,94,0.0,0.0,86,0.00,,---,0.00,VWS V14.00,2013-03-06 04:44:00,
2013-03-05 23:45:00,34.6,30.9,30.00,ENE,78,0.0,3.0,86,0.00,,---,0.00,VWS V14.00,2013-03-06 04:45:00,
2013-03-05 23:46:00,34.4,30.6,30.01,East,94,0.0,0.0,86,0.00,,---,0.00,VWS V14.00,2013-03-06 04:46:00,
2013-03-05 23:48:00,34.4,30.6,30.01,East,94,0.0,0.0,86,0.00,,---,0.00,VWS V14.00,2013-03-06 04:48:00,
2013-03-05 23:49:00,34.4,30.6,30.01,East,94,0.0,0.0,86,0.00,,---,0.00,VWS V14.00,2013-03-06 04:49:00,
2013-03-05 23:51:00,34.4,30.6,30.01,East,94,0.0,0.0,86,0.00,,---,0.00,VWS V14.00,2013-03-06 04:51:00,
2013-03-05 23:53:00,34.6,30.9,30.01,East,94,0.0,0.0,86,0.00,,---,0.00,VWS V14.00,2013-03-06 04:53:00,
2013-03-05 23:54:00,34.6,30.9,30.01,East,94,0.0,0.0,86,0.00,,---,0.00,VWS V14.00,2013-03-06 04:54:00,
2013-03-05 23:56:00,34.6,30.9,30.01,East,94,0.0,0.0,86,0.00,,---,0.00,VWS V14.00,2013-03-06 04:56:00,
2013-03-05 23:57:00,34.6,30.9,30.01,East,94,0.0,0.0,86,0.00,,---,0.00,VWS V14.00,2013-03-06 04:57:00,
2013-03-05 23:59:00,34.6,30.9,30.01,East,94,0.0,0.0,86,0.00,,---,0.00,VWS V14.00,2013-03-06 04:59:00,